GFSNGP_925_temp_000.txt.gz
Temp
14 13 16 17 17 15 15 15 14 15 13 14 11 10 9 9 8 8 8 8 7 6 7 8 8 8 8 8 8 7 6 6 5 5 4 4 3 2 2 1 2 2 2 3
15 12 12 16 16 14 14 15 13 14 14 12 10 8 9 8 8 8 8 8 8 7 7 8 8 8 8 8 7 6 6 5 5 4 4 3 3 2 1 2 2 2 2 2
12 9 10 12 13 13 14 14 13 13 14 10 10 10 9 8 8 8 8 9 8 8 8 9 8 9 8 8 7 6 5 5 5 4 3 3 2 2 2 2 2 1 1 0
8 7 11 15 14 14 15 14 12 13 11 11 11 9 9 8 8 7 7 8 8 9 9 9 9 8 8 7 6 5 5 5 4 3 3 2 1 2 2 2 1 1 0 -1
9 8 12 16 13 13 14 14 11 12 10 10 8 9 9 8 7 7 7 9 10 10 9 9 8 8 7 6 5 5 5 5 4 3 3 2 1 2 2 1 1 0 -0 -1
3 9 10 13 14 14 15 12 11 10 9 9 8 7 11 7 7 7 9 9 10 9 8 8 7 7 6 5 5 5 5 4 4 3 3 2 1 2 2 1 1 -0 -1 -2
2 5 9 11 14 14 13 13 10 10 9 7 8 9 9 8 7 9 9 8 8 8 7 7 7 5 5 4 4 4 4 4 4 3 2 2 1 1 1 0 -1 -2 -2 -3
4 4 11 11 14 13 12 11 10 9 8 9 8 7 8 7 6 6 6 6 7 7 7 6 5 4 4 3 3 3 3 3 3 2 2 1 1 1 1 -1 -2 -2 -3 -3
9 10 11 11 12 12 11 11 10 9 8 9 7 7 8 6 6 5 6 6 6 6 5 5 4 4 3 3 2 2 2 1 1 1 1 1 0 -0 -1 -2 -2 -2 -3 -4
11 14 11 11 11 11 11 10 10 8 8 7 8 7 6 4 4 4 5 5 5 4 4 3 3 3 2 1 1 0 -0 0 -0 -0 0 1 0 -1 -1 -1 -2 -2 -3 -4
9 11 11 11 10 10 10 9 9 8 8 8 7 5 6 5 4 4 5 5 4 3 2 2 2 2 1 0 -1 -1 -1 -1 -1 -1 -1 -0 -0 -1 -1 -2 -2 -3 -3 -4
10 12 12 12 13 11 10 9 8 8 7 6 6 6 5 4 4 4 4 4 3 2 2 1 1 0 -1 -1 -2 -2 -2 -2 -2 -3 -2 -2 -2 -2 -2 -2 -2 -3 -3 -4
12 13 10 11 10 10 9 8 7 7 6 6 6 5 4 3 4 4 3 3 2 2 1 1 -0 -1 -1 -1 -1 -0 -1 -1 -2 -2 -2 -2 -2 -2 -2 -2 -3 -3 -3 -4
10 11 11 10 10 9 9 7 6 6 6 5 4 4 4 3 3 3 3 2 2 1 1 -0 -1 -2 -2 -1 -1 -0 -1 -1 -2 -2 -2 -2 -2 -2 -3 -3 -3 -3 -3 -4
10 9 10 9 6 5 5 6 5 4 4 3 3 3 3 2 3 3 2 2 1 1 0 -1 -1 -1 -1 -1 -1 -1 -1 -1 -2 -1 -1 -1 -2 -3 -3 -3 -3 -3 -4 -4
7 8 7 6 6 5 5 4 2 1 0 2 3 2 3 3 3 2 2 2 1 1 1 -0 -1 -0 -1 -1 -1 -1 -1 -1 -2 -2 -1 -1 -2 -2 -3 -3 -3 -4 -4 -4
8 7 5 4 3 4 3 2 1 1 3 3 3 3 3 2 2 2 3 2 1 1 1 0 -0 -1 -1 -1 -1 -1 -2 -2 -2 -2 -2 -1 -2 -2 -2 -3 -3 -4 -3 -3
4 4 5 4 3 2 2 3 3 4 3 3 3 3 2 1 1 3 3 1 1 1 1 1 -0 -1 -1 -1 -1 -1 -2 -2 -2 -2 -2 -2 -2 -2 -3 -3 -3 -3 -3 -3
3 3 2 2 3 3 3 3 3 3 3 3 3 2 1 1 1 1 -0 -0 -0 -1 2 0 -0 -1 -0 -1 -1 -1 -2 -2 -2 -3 -3 -3 -3 -3 -3 -3 -3 -3 -3 -3
3 3 3 3 4 4 3 4 3 3 2 1 0 -0 0 2 -0 -1 -1 -2 1 1 1 0 -0 -1 -1 -1 -1 -1 -1 -2 -3 -3 -3 -3 -3 -3 -3 -3 -3 -3 -3 -3
2 3 3 3 3 3 3 2 1 1 1 1 0 -0 -1 1 0 -2 -3 -3 1 0 -0 -1 -1 -1 -1 -1 -2 -2 -2 -3 -3 -3 -3 -3 -3 -3 -3 -3 -4 -4 -4 -3
3 3 3 3 3 3 3 2 2 1 1 1 1 1 -0 0 1 -0 -1 -2 0 -0 -0 -1 -1 -1 -1 -2 -2 -2 -3 -3 -3 -3 -3 -3 -3 -3 -3 -3 -4 -4 -4 -4
3 3 2 2 2 2 2 2 2 1 2 2 2 2 1 1 1 -2 -1 1 -1 -0 -0 -1 -1 -1 -2 -2 -3 -3 -3 -3 -3 -3 -3 -3 -4 -4 -4 -4 -4 -4 -5 -5
2 2 2 1 1 1 -0 1 1 2 1 1 1 1 0 1 1 0 0 0 -0 -1 -1 -1 -2 -2 -3 -3 -3 -3 -3 -3 -3 -4 -4 -4 -4 -4 -5 -5 -5 -5 -5 -5
2 1 1 0 -1 -2 -2 -2 -1 -1 -1 -1 -1 -1 -0 -1 -3 -2 -2 -2 -1 -1 -2 -2 -2 -2 -3 -4 -4 -4 -4 -5 -5 -5 -5 -6 -5 -5 -5 -5 -5 -5 -5 -5
-2 -2 -2 -3 -4 -4 -5 -4 -4 -3 -3 -3 -3 -3 -3 -3 -3 -2 -2 -2 -2 -1 -2 -2 -3 -4 -5 -6 -6 -7 -7 -7 -8 -8 -8 -8 -9 -9 -8 -8 -7 -6 -6 -6
-4 -4 -4 -5 -6 -5 -6 -6 -5 -5 -5 -4 -4 -3 -4 -4 -3 -3 -3 -2 -2 -3 -4 -5 -6 -6 -7 -8 -9 -9 -9 -9 -10 -10 -10 -10 -10 -11 -10 -10 -10 -9 -8 -7

GFSNGP_925_temp_003.txt.gz
Temp
14 14 15 17 17 16 17 17 18 18 16 18 17 15 13 12 11 11 11 10 10 9 9 9 8 9 9 8 8 7 7 6 5 5 4 4 3 3 2 2 2 2 2 2
14 13 13 16 16 16 15 15 16 15 16 16 14 13 11 11 11 11 11 11 10 9 9 8 8 8 9 8 7 7 6 5 5 4 4 4 3 2 2 2 2 1 1 2
15 11 13 15 15 16 15 15 17 16 19 13 13 12 13 12 11 11 11 11 10 9 9 9 8 9 8 8 7 7 6 5 5 4 4 3 3 1 1 1 1 1 1 0
13 10 16 18 14 15 16 15 15 14 15 14 14 12 12 12 12 11 11 11 10 10 9 8 8 9 8 8 7 6 5 5 5 5 4 3 3 1 1 1 0 0 0 0
13 13 14 17 14 14 15 18 15 15 14 12 10 12 13 12 11 12 11 10 10 10 9 9 8 8 8 7 7 5 5 5 5 4 4 3 2 1 1 1 1 -0 -1 -2
9 14 15 16 15 14 15 16 15 14 12 11 12 13 17 12 11 10 10 9 9 9 9 8 8 8 7 6 5 5 5 4 4 4 3 2 2 2 2 1 0 -0 -2 -2
7 13 13 13 14 14 16 17 13 12 12 11 13 14 13 10 9 9 9 9 9 8 7 8 8 7 6 5 5 4 4 4 3 3 2 2 2 2 1 0 -1 -2 -2 -2
7 10 14 12 14 15 16 13 13 12 12 11 13 10 10 9 8 8 7 6 7 6 7 7 6 6 5 4 4 3 3 2 1 1 1 1 0 1 1 -0 -2 -3 -3 -3
12 13 13 13 13 13 12 13 13 12 12 11 10 10 9 8 8 7 6 6 6 6 6 5 5 4 3 4 3 2 1 0 -0 -0 -0 -0 -1 0 -0 -2 -3 -3 -3 -4
12 14 12 12 13 12 13 13 13 12 12 10 11 9 8 7 7 6 6 6 5 6 5 4 4 4 3 2 1 1 -1 -1 -1 -1 -1 -1 -1 -0 -1 -2 -2 -2 -3 -3
11 12 12 13 12 13 13 11 11 11 10 10 10 8 7 7 5 4 4 5 5 4 3 3 3 2 2 1 0 -2 -2 -1 -1 -2 -2 -1 -1 -0 -0 -1 -1 -2 -3 -4
13 15 15 14 14 13 12 13 12 10 9 8 8 7 6 5 5 4 4 3 3 3 3 2 2 1 1 -0 -1 -1 -2 -1 -0 -1 -2 -2 -2 -2 -1 -1 -2 -2 -3 -3
15 13 12 13 12 12 12 12 10 9 8 7 6 6 5 4 3 3 2 3 3 3 2 1 1 -0 -0 -1 -1 -1 -2 -1 -1 -1 -1 -2 -2 -2 -1 -2 -2 -2 -3 -3
11 11 12 11 12 9 8 7 6 6 5 4 4 3 3 2 2 1 2 3 3 2 1 1 -0 -0 -0 -1 -1 -1 -1 -1 -1 -1 -2 -2 -2 -2 -3 -3 -3 -3 -3 -3
9 10 10 8 7 6 6 6 5 5 4 3 3 2 1 1 1 2 3 2 2 1 1 0 -1 1 -0 -1 -1 -1 -1 -1 -1 -1 -1 -1 -1 -2 -3 -4 -4 -4 -4 -4
7 7 6 6 5 5 5 4 2 2 2 2 2 2 2 1 2 2 2 2 1 1 1 1 1 1 -0 -0 -1 -2 -2 -1 -1 -1 -1 -1 -1 -1 -3 -3 -3 -3 -4 -4
8 6 4 4 3 3 3 3 2 2 2 2 3 3 3 2 1 1 2 2 1 1 1 1 2 1 0 -0 -1 -2 -2 -2 -3 -2 -2 -3 -3 -3 -2 -3 -3 -3 -3 -3
4 4 4 3 3 2 2 2 3 3 3 3 3 2 1 -0 0 1 2 0 0 1 2 2 1 1 -0 -0 -1 -1 -1 -1 -1 -2 -2 -3 -3 -3 -3 -3 -3 -4 -4 -4
4 3 3 3 3 3 3 3 2 2 2 1 0 -0 -0 -0 -0 0 -0 -1 -1 -1 3 2 1 0 -0 -1 -1 -2 -2 -2 -2 -2 -3 -3 -4 -4 -4 -4 -4 -4 -4 -4
3 3 3 2 2 2 1 1 1 0 0 0 -0 -0 -0 1 0 -0 -1 -2 0 1 2 1 -0 -0 -0 -1 -1 -2 -2 -2 -2 -3 -3 -4 -4 -4 -4 -4 -3 -4 -4 -4
3 2 2 2 2 2 2 2 1 1 0 0 -0 0 -0 1 1 -0 -3 -2 2 2 1 -0 -1 -1 -1 -1 -1 -2 -2 -3 -3 -3 -3 -3 -4 -4 -4 -4 -4 -4 -4 -4
3 3 3 2 1 1 1 1 1 1 1 1 1 0 -1 -1 -0 -0 0 -1 2 1 0 -0 -0 -0 -0 -1 -1 -2 -2 -3 -3 -3 -3 -3 -3 -3 -4 -4 -4 -4 -4 -4
2 2 2 1 0 -0 0 -1 -1 -1 -2 -2 -2 -2 -3 -2 -3 -3 -1 0 -1 -1 -1 -1 -1 -1 -1 -2 -2 -2 -3 -3 -3 -3 -3 -3 -3 -4 -4 -4 -4 -5 -5 -5
1 1 -0 -1 -1 -2 -3 -4 -4 -3 -3 -3 -3 -3 -3 -3 -3 -3 -3 -3 -3 -3 -2 -2 -2 -2 -1 -2 -2 -3 -3 -3 -3 -5 -5 -5 -5 -6 -6 -6 -6 -6 -6 -6
-2 -3 -3 -4 -4 -4 -5 -5 -5 -4 -4 -4 -4 -4 -3 -3 -4 -4 -4 -4 -3 -3 -3 -2 -2 -2 -2 -3 -3 -4 -5 -6 -7 -8 -8 -8 -8 -9 -9 -9 -9 -9 -9 -9
-3 -4 -4 -5 -5 -6 -7 -7 -7 -7 -7 -7 -6 -6 -6 -6 -5 -5 -4 -4 -3 -3 -2 -3 -4 -6 -6 -6 -6 -7 -9 -9 -10 -11 -11 -11 -11 -11 -11 -11 -11 -11 -11 -11
-5 -7 -7 -7 -8 -9 -10 -10 -10 -10 -9 -9 -9 -9 -9 -8 -7 -7 -7 -6 -5 -4 -6 -8 -9 -10 -9 -9 -10 -11 -11 -12 -13 -13 -13 -13 -13 -13 -13 -12 -12 -11 -11 -11

GFSNGP_925_temp_006.txt.gz
Temp
20 20 20 22 23 22 22 23 22 24 23 25 24 24 23 21 19 19 17 16 16 15 15 14 13 12 11 11 10 9 9 9 8 7 6 6 5 5 4 4 4 4 3 3
18 18 19 20 22 22 22 23 22 23 23 25 23 21 21 19 18 17 16 16 16 15 15 14 13 12 11 10 10 9 9 8 7 7 6 5 5 4 4 4 4 4 4 3
20 16 17 17 20 22 22 23 22 22 24 22 21 20 20 19 18 17 17 16 16 16 15 14 12 12 11 10 9 8 8 7 7 6 5 5 5 5 4 4 4 4 4 3
17 14 17 23 19 20 22 22 23 22 22 21 21 20 19 19 19 17 17 17 17 15 14 12 12 11 11 10 9 8 8 7 7 6 6 6 5 5 4 4 4 4 3 3
16 19 21 23 19 19 20 22 22 22 22 20 17 17 19 18 18 18 17 17 16 15 14 13 12 11 10 9 9 8 7 7 7 6 6 6 5 5 4 4 4 4 3 2
14 17 18 21 19 18 19 21 20 20 20 18 17 18 22 20 18 17 17 16 15 14 13 12 11 10 9 9 8 8 7 6 6 5 5 5 5 4 4 4 3 3 2 0
16 16 19 19 18 18 19 20 20 19 19 18 18 20 19 17 18 16 16 15 14 12 12 11 10 9 9 8 8 7 5 5 5 5 4 4 4 4 4 3 3 1 -0 -1
13 15 16 18 17 18 20 19 19 19 19 18 19 18 16 15 15 15 15 13 12 11 10 8 8 8 8 8 7 5 5 4 4 4 3 3 3 3 3 2 2 0 -2 -2
18 20 19 18 20 20 18 18 18 18 19 18 17 17 16 15 14 13 13 12 10 8 7 7 6 6 7 7 5 4 4 4 3 3 2 2 2 3 3 2 2 1 0 -0
16 19 19 19 19 19 18 18 19 19 18 17 17 17 16 14 12 12 11 9 8 6 6 5 4 4 4 4 3 3 3 2 2 2 0 1 2 2 2 2 1 1 1 0
17 18 19 19 18 18 19 18 18 18 17 16 16 16 14 12 11 10 6 5 5 4 4 5 4 4 3 2 2 2 2 2 2 1 0 -0 -0 2 2 1 1 1 1 -0
17 20 19 19 19 17 17 18 17 16 16 13 13 13 12 10 8 7 5 3 3 4 3 3 3 3 2 1 1 0 1 1 2 1 1 -0 -0 -0 0 -0 -1 -1 -1 -2
17 16 16 16 16 15 15 13 13 12 12 11 10 10 7 4 2 2 2 2 4 4 3 2 1 1 1 0 -1 -1 0 1 1 1 1 1 0 -1 -0 -0 -1 -2 -2 -2
14 14 16 14 13 12 11 9 8 8 7 7 6 4 2 1 1 1 2 2 2 1 1 0 0 1 0 -0 -0 -0 -0 0 0 1 1 1 0 -0 -1 -1 -0 -1 -2 -2
11 12 12 11 9 9 9 9 7 4 3 2 2 1 2 3 4 4 3 2 1 0 1 1 1 2 1 0 1 1 0 1 1 -0 -1 -1 -1 -0 -0 -1 -1 -1 -2 -2
10 10 9 7 7 6 5 4 3 3 2 2 3 3 4 4 3 3 2 1 -0 1 2 2 1 2 1 1 1 1 1 0 -1 -2 -2 -1 -1 -0 -0 -1 -1 -1 -1 -1
10 8 7 6 6 4 3 3 3 3 4 4 4 3 4 4 2 2 2 1 1 1 1 1 2 1 0 0 0 1 1 1 -0 -1 -1 -2 -2 -1 -1 -1 -1 -1 -1 -2
7 7 6 4 4 4 3 4 4 4 4 3 1 1 1 0 0 0 0 0 0 0 2 2 2 2 1 1 0 0 1 0 -0 -1 -1 -1 -1 -1 -2 -2 -1 -1 -1 -2
5 5 5 5 5 5 4 3 1 1 1 1 0 -0 -0 -0 -0 -0 0 -0 -1 -1 3 2 2 1 1 -0 -1 -1 -1 -1 -2 -1 -2 -2 -2 -2 -2 -3 -2 -2 -2 -2
6 5 5 4 2 1 1 0 1 2 1 -0 -0 0 0 0 -0 -1 -1 -2 1 1 2 2 1 0 -1 -1 -1 -1 -1 -2 -2 -2 -2 -2 -2 -2 -3 -3 -3 -3 -3 -3
5 3 2 1 1 0 -0 -0 -0 -1 -1 -1 -2 -2 -2 -1 -1 -1 -1 2 2 2 1 -0 -1 -1 0 -0 -1 -1 -1 -2 -2 -2 -2 -2 -2 -3 -3 -3 -3 -3 -3 -3
5 2 1 1 1 -0 -1 -1 -2 -2 -2 -2 -3 -3 -2 -2 -2 -2 -2 -1 -0 -1 -2 -2 -2 -1 -1 -1 -2 -2 -2 -2 -2 -3 -3 -2 -2 -2 -3 -3 -3 -3 -3 -3
3 2 -0 -1 -1 -1 -2 -3 -3 -3 -3 -3 -3 -3 -3 -3 -3 -3 -2 -2 -3 -4 -4 -4 -3 -3 -3 -3 -3 -3 -3 -2 -3 -3 -3 -3 -3 -3 -3 -3 -4 -4 -4 -4
1 -1 -2 -3 -3 -3 -2 -3 -3 -3 -4 -4 -3 -4 -4 -3 -4 -3 -3 -4 -4 -4 -4 -3 -3 -3 -3 -3 -2 -3 -2 -3 -5 -6 -7 -7 -7 -7 -7 -7 -7 -7 -8 -8
-2 -3 -3 -3 -2 -2 -4 -4 -4 -4 -5 -5 -5 -5 -6 -6 -6 -6 -6 -6 -6 -6 -5 -5 -5 -6 -5 -5 -5 -5 -6 -8 -9 -9 -9 -10 -10 -10 -10 -10 -10 -10 -11 -10
-2 -2 -3 -5 -5 -5 -6 -6 -6 -6 -6 -6 -6 -7 -7 -7 -7 -8 -7 -7 -8 -8 -9 -10 -11 -10 -10 -11 -11 -11 -11 -11 -11 -12 -12 -12 -12 -12 -12 -12 -12 -12 -12 -12
-5 -5 -4 -5 -6 -7 -9 -8 -8 -8 -8 -9 -9 -9 -9 -9 -9 -9 -10 -10 -10 -11 -11 -12 -13 -13 -13 -13 -14 -14 -14 -14 -15 -15 -15 -15 -15 -15 -15 -15 -14 -14 -14 -13

GFSNGP_925_temp_009.txt.gz
Temp
25 24 25 25 26 26 25 25 24 25 27 27 27 27 27 26 25 26 24 23 22 20 19 17 16 15 14 14 12 12 12 12 11 10 9 8 8 7 6 6 6 6 6 5
21 24 23 24 25 26 26 26 26 26 26 28 27 26 25 25 24 24 23 22 21 20 19 17 16 15 15 13 12 12 11 11 10 10 9 8 7 7 6 6 6 6 6 5
21 20 21 18 21 24 26 26 26 24 26 26 25 24 24 24 23 23 22 21 21 20 18 18 17 15 14 13 12 11 11 11 10 9 8 8 7 7 7 6 6 6 6 5
20 15 16 25 24 24 24 26 27 26 26 26 25 24 24 24 24 22 22 21 21 20 18 18 17 15 14 13 12 11 10 10 9 9 8 8 7 7 7 7 6 6 5 5
17 21 23 24 24 23 23 24 25 24 25 25 23 21 23 23 23 22 22 22 21 19 18 17 16 15 13 13 12 11 9 9 9 8 8 8 7 7 7 6 6 6 5 5
18 17 16 22 22 21 22 22 23 23 23 22 22 20 23 22 22 22 21 21 20 19 18 17 15 14 13 12 10 10 10 9 8 8 7 7 7 7 6 6 6 5 5 4
18 17 20 23 22 21 20 21 22 22 22 22 21 22 21 20 20 21 21 20 19 18 17 16 15 13 12 11 10 10 8 7 7 7 7 6 6 6 5 5 5 4 3 2
17 14 16 22 21 20 21 22 22 21 22 20 20 20 21 20 19 19 19 19 17 16 15 14 12 11 9 8 8 7 6 6 6 6 5 5 4 5 5 5 5 4 2 1
21 21 21 22 22 22 21 20 21 20 21 21 20 20 20 20 19 18 17 16 15 13 10 9 8 7 7 6 5 6 5 5 5 5 4 3 3 4 4 5 4 3 2 1
19 22 22 22 22 22 21 21 21 21 20 20 19 19 19 19 17 16 16 14 12 9 8 5 4 3 3 5 4 3 3 4 3 3 3 2 2 3 4 4 3 2 2 1
20 21 22 22 22 21 20 20 20 20 19 19 17 18 18 17 15 14 11 8 7 5 4 4 5 5 3 2 3 2 1 2 2 2 3 3 2 2 2 3 3 2 2 1
19 21 20 20 20 19 18 18 17 16 16 15 15 15 15 13 11 8 6 4 3 3 3 4 4 4 3 2 1 1 1 1 2 2 2 3 2 1 1 1 1 1 1 0
19 18 18 18 18 16 15 14 14 13 13 12 11 10 7 4 4 2 2 2 3 4 4 4 3 2 1 1 1 0 1 2 1 2 2 3 2 0 -0 1 0 -0 -0 -1
16 16 17 15 14 13 12 11 9 8 6 6 4 3 2 2 2 3 3 4 4 4 3 2 2 2 2 2 2 1 0 1 1 2 2 1 1 1 0 0 0 -0 -1 -1
14 15 14 13 12 11 9 7 5 4 4 4 4 5 5 5 6 6 6 5 4 3 3 3 3 3 3 2 2 2 2 2 2 1 1 -0 -0 -0 0 -0 -0 -0 -0 -1
13 12 11 10 8 7 6 5 4 5 6 6 6 6 7 6 6 6 5 4 3 3 4 3 2 2 2 2 3 3 2 2 2 1 0 -0 -1 -1 -0 0 -0 -0 -1 -1
11 10 9 8 7 6 5 5 6 7 7 6 6 2 3 3 2 4 3 3 2 1 1 1 2 2 2 2 3 3 3 3 2 1 0 0 -0 -0 -0 -0 -0 -0 -0 -1
10 9 8 7 6 5 6 6 4 3 3 3 1 1 0 -0 -0 0 1 1 1 1 2 2 2 1 1 2 2 2 3 2 2 1 -0 -1 -0 -0 -0 -1 -1 -1 -1 -1
7 7 7 7 6 4 4 3 1 2 1 0 -0 -1 -0 -0 -0 -0 -0 -0 -1 0 4 2 1 0 0 1 0 1 1 1 0 -0 -1 -1 -1 -1 -1 -2 -2 -2 -2 -2
8 7 6 4 2 2 2 -0 1 2 2 -0 -1 -1 -1 -1 -1 -1 -1 -1 1 1 0 -0 -1 -0 0 1 1 0 -0 -0 -0 -0 -1 -1 -1 -1 -1 -2 -2 -2 -2 -2
6 4 2 0 -1 -1 -1 -1 -1 -1 -1 -2 -2 -2 -2 -2 -2 -2 -1 -0 0 -0 -2 -2 -3 -3 -2 -2 -2 -2 -1 -1 -1 -1 -1 -2 -2 -2 -2 -2 -2 -2 -2 -3
5 2 0 1 -0 -1 -2 -2 -2 -3 -3 -3 -3 -3 -3 -1 -1 -1 -1 -1 -1 -2 -3 -4 -3 -3 -3 -3 -3 -3 -3 -2 -2 -2 -2 -2 -2 -3 -2 -2 -2 -3 -3 -3
4 2 -1 -1 -1 -2 -2 -3 -2 -3 -3 -3 -3 -4 -3 -3 -2 -2 -2 -3 -4 -5 -5 -5 -5 -6 -6 -5 -4 -3 -3 -2 -2 -2 -2 -3 -4 -4 -4 -5 -5 -5 -5 -5
1 -1 -2 -2 -2 -1 -0 -1 -2 -2 -4 -3 -3 -4 -5 -4 -4 -4 -5 -6 -6 -7 -7 -7 -9 -9 -8 -7 -7 -7 -7 -7 -7 -6 -6 -6 -6 -7 -7 -7 -7 -7 -8 -8
-1 -1 -1 -1 0 -0 -1 -2 -2 -2 -3 -4 -4 -5 -6 -6 -6 -6 -7 -8 -8 -8 -9 -9 -10 -11 -10 -10 -10 -10 -10 -10 -10 -10 -9 -9 -9 -9 -9 -9 -9 -10 -10 -9
0 0 -1 -3 -3 -3 -4 -4 -4 -4 -5 -5 -6 -6 -7 -7 -8 -8 -9 -9 -9 -10 -10 -10 -11 -12 -12 -12 -12 -12 -13 -13 -14 -13 -13 -12 -12 -12 -12 -12 -12 -12 -12 -11
-3 -2 -2 -2 -4 -5 -6 -6 -6 -6 -6 -8 -8 -7 -7 -8 -9 -9 -10 -10 -10 -11 -11 -11 -12 -12 -13 -13 -13 -14 -14 -14 -15 -15 -15 -15 -14 -14 -14 -14 -14 -14 -13 -13

GFSNGP_925_temp_012.txt.gz
Temp
26 26 26 25 26 26 26 25 23 24 26 27 28 27 27 27 26 25 25 25 24 23 21 20 18 17 16 15 14 14 13 13 13 11 10 9 9 8 7 7 6 6 6 6
22 24 25 24 25 26 26 26 26 26 26 28 27 26 26 25 26 25 24 25 25 23 21 20 19 17 16 15 14 13 12 12 12 11 10 9 8 7 7 7 7 6 6 6
20 21 20 18 21 24 25 26 26 24 26 27 26 26 25 25 25 24 23 23 23 23 21 20 19 17 16 15 14 13 12 12 11 10 9 8 7 7 7 7 7 7 6 6
18 15 17 23 26 25 25 26 26 27 27 27 24 24 24 24 24 23 23 22 22 21 21 20 19 18 16 15 13 12 12 11 9 8 8 8 8 8 8 8 7 7 6 6
16 19 22 23 25 24 23 24 24 24 24 24 23 23 24 23 23 22 22 22 22 22 21 20 19 18 16 15 13 12 11 8 7 7 8 8 8 7 7 7 7 7 6 6
17 18 17 22 23 23 23 21 23 23 22 22 23 18 20 21 20 21 22 22 22 21 20 19 18 17 15 14 13 11 9 8 7 5 7 7 5 6 6 6 6 6 6 5
17 16 18 24 23 22 20 20 22 21 22 21 20 20 20 21 20 20 20 20 20 20 18 17 17 15 13 11 10 8 7 5 5 5 5 5 5 5 5 5 5 5 4 3
17 14 15 23 22 19 21 22 21 21 21 20 20 20 20 21 20 20 19 19 18 13 11 10 11 13 10 8 6 4 4 3 5 4 4 4 4 3 4 4 4 4 3 2
19 18 21 23 22 23 22 21 21 20 21 20 20 20 20 19 19 18 17 15 11 9 7 7 5 6 4 4 4 3 4 4 3 3 3 2 2 2 2 3 4 4 3 1
20 23 23 23 23 23 22 21 21 21 20 20 19 18 18 18 16 12 12 12 10 7 5 4 3 3 2 3 3 3 2 1 2 2 2 2 2 2 2 2 3 3 3 2
20 21 22 23 21 20 20 20 19 18 18 16 16 17 17 14 13 10 7 6 5 4 4 4 3 3 2 3 2 2 1 1 1 2 2 2 3 3 2 2 1 1 2 2
17 19 19 19 18 18 17 16 16 16 15 13 14 13 10 9 8 6 4 4 3 3 3 3 3 3 3 3 2 1 0 1 1 2 2 2 2 2 2 2 1 1 1 1
19 18 18 17 16 15 14 14 13 12 11 9 8 7 6 4 3 2 3 3 3 4 4 5 4 3 2 2 1 1 1 1 1 1 2 2 2 2 1 1 1 1 1 1
16 16 15 15 13 13 10 9 7 7 6 5 4 3 3 3 3 4 4 5 5 5 4 4 3 3 3 3 3 2 2 1 1 1 2 2 2 1 0 0 -0 0 1 -0
15 15 14 13 12 9 7 6 6 6 6 6 6 6 6 7 7 7 6 6 5 4 4 4 4 4 3 4 3 3 2 2 2 2 2 1 1 1 -0 -1 -1 -1 -0 -0
14 13 12 10 8 7 7 7 7 6 7 6 5 4 5 5 5 6 6 4 3 3 2 2 2 3 2 2 3 3 3 3 3 3 2 2 1 0 -0 -1 -1 -0 -1 -1
11 10 9 8 7 6 6 6 5 5 5 4 2 1 1 1 3 2 1 1 1 1 1 1 1 1 1 2 2 3 3 3 3 3 2 2 1 -0 -1 -1 -1 -1 -0 -0
10 9 8 6 6 6 4 4 3 3 1 0 -1 -1 -1 -1 -1 -1 -1 -1 -0 1 2 1 -0 0 0 0 0 0 0 1 1 1 1 0 -0 -1 -1 -1 -1 -1 -1 -1
8 7 7 6 5 4 3 2 0 0 -1 -1 -1 -1 -2 -2 -2 -2 -2 -2 -1 1 -1 -1 -1 -2 -2 -2 -2 -2 -2 -2 -1 -0 0 0 -1 -1 -1 -1 -1 -1 -2 -2
7 6 4 2 1 1 -0 -0 2 1 -2 -2 -2 -2 -2 -2 -2 -1 -1 -1 0 -2 -3 -3 -3 -3 -3 -3 -3 -3 -3 -3 -3 -3 -3 -2 -1 -1 -1 -1 -1 -2 -2 -2
5 2 0 -1 -1 -1 -1 -2 -2 -2 -2 -3 -3 -3 -3 -1 -1 -1 -1 -1 -3 -4 -5 -5 -5 -6 -6 -6 -6 -5 -4 -4 -3 -3 -3 -2 -2 -2 -1 -2 -2 -3 -2 -2
2 0 -0 -1 -1 -2 -2 -2 -2 -3 -3 -3 -4 -4 -3 -2 -2 -3 -3 -4 -5 -6 -7 -6 -8 -8 -8 -8 -7 -7 -7 -7 -7 -5 -3 -3 -2 -2 -3 -3 -3 -3 -3 -3
1 -0 -0 -0 -1 -1 -2 -2 -3 -3 -3 -3 -4 -5 -4 -4 -4 -4 -5 -6 -7 -8 -8 -8 -9 -10 -10 -9 -9 -9 -9 -10 -10 -9 -8 -8 -7 -7 -7 -7 -7 -7 -7 -7
0 -1 -1 -1 -1 -0 -0 -1 -1 -2 -3 -3 -4 -5 -5 -5 -6 -6 -7 -8 -8 -9 -9 -9 -10 -11 -11 -11 -11 -11 -11 -12 -13 -12 -12 -11 -11 -10 -10 -10 -10 -10 -10 -9
-1 -1 -1 -0 1 -0 -1 -2 -2 -2 -4 -4 -5 -5 -6 -6 -7 -8 -8 -9 -9 -10 -10 -10 -11 -12 -12 -12 -12 -13 -13 -13 -14 -14 -14 -14 -13 -13 -13 -13 -13 -13 -12 -12
1 -0 -1 -2 -2 -3 -4 -4 -4 -4 -5 -5 -6 -6 -7 -8 -8 -9 -9 -10 -10 -11 -11 -11 -12 -12 -13 -13 -13 -14 -14 -14 -15 -15 -15 -15 -15 -15 -15 -15 -15 -14 -14 -14
-2 -1 -1 -2 -4 -5 -6 -6 -6 -7 -6 -8 -8 -8 -8 -8 -9 -10 -10 -11 -11 -12 -12 -13 -13 -13 -14 -14 -15 -15 -15 -16 -16 -17 -17 -17 -17 -17 -17 -16 -16 -15 -15 -14

GFSNGP_925_temp_015.txt.gz
Temp
21 22 23 24 23 23 23 20 17 19 21 22 23 22 23 21 23 24 21 22 19 17 15 17 16 15 15 16 15 14 13 12 12 11 11 10 9 8 8 7 7 7 6 6
21 21 20 21 21 21 22 23 23 22 21 23 21 21 21 21 21 22 21 20 19 18 16 16 15 15 15 15 15 14 13 12 12 11 10 9 8 7 6 6 6 7 6 6
17 16 17 15 19 21 21 22 22 20 21 22 19 20 19 19 20 19 21 19 19 18 16 16 16 16 16 15 14 14 13 12 10 10 9 7 6 5 6 6 7 7 7 6
13 13 14 18 22 23 22 21 20 20 19 19 19 18 17 17 17 17 18 18 18 19 19 18 18 17 16 15 14 13 12 9 8 8 7 6 5 6 7 7 6 6 7 6
12 12 16 19 21 21 22 19 19 18 18 19 19 17 16 17 16 16 16 17 18 20 20 20 18 17 16 13 12 11 8 8 7 7 6 4 5 6 6 4 5 6 6 6
11 12 12 16 21 21 21 15 18 18 17 18 17 11 15 17 19 18 17 17 13 13 14 16 17 16 13 10 8 7 5 5 5 5 4 5 5 4 4 4 4 4 4 5
8 9 12 18 20 21 16 15 19 19 17 16 16 14 16 17 17 17 12 10 10 8 7 9 11 10 7 6 5 5 5 4 3 3 3 4 3 4 3 3 3 3 4 3
11 11 13 19 20 17 15 18 17 18 18 18 17 16 16 15 14 12 9 8 6 5 4 5 5 5 4 3 3 4 3 3 3 3 3 3 3 3 3 2 2 3 3 2
13 12 15 21 18 18 17 17 19 18 16 16 15 14 14 11 11 9 8 5 5 4 3 4 4 4 3 3 4 4 4 3 3 3 2 2 2 2 2 2 2 2 2 2
15 19 19 19 20 18 16 15 15 13 13 13 13 13 10 9 8 6 5 5 4 4 3 3 4 5 5 4 5 4 3 2 2 1 1 1 1 2 2 2 2 1 1 1
16 18 16 15 15 15 14 14 13 11 10 11 10 10 9 6 5 4 4 4 4 4 3 3 3 3 3 3 2 2 2 2 1 1 1 1 2 2 2 2 2 2 1 1
10 16 14 13 13 13 12 12 11 9 8 7 7 6 5 4 4 4 3 3 3 3 3 3 3 3 3 3 3 2 2 1 1 1 1 2 2 2 2 2 2 1 1 1
14 14 13 11 9 9 8 8 7 7 6 5 4 3 3 2 2 3 3 3 4 4 4 4 4 3 3 3 3 2 2 2 2 1 1 1 1 2 1 1 1 0 0 1
13 12 11 12 8 8 6 6 5 4 4 4 3 3 3 3 4 4 4 5 5 4 4 4 4 3 3 3 3 3 2 2 2 2 2 1 1 1 1 0 -0 -0 -0 -0
11 11 9 8 7 6 6 5 5 4 5 5 5 4 5 5 5 4 3 4 4 3 3 2 2 2 2 1 1 2 2 2 2 2 2 2 2 1 1 1 0 -0 0 0
10 9 8 7 7 6 5 5 5 4 4 3 2 1 2 2 2 1 1 1 0 -1 -1 -0 -1 -0 0 0 0 0 0 0 0 0 1 1 1 1 0 -0 0 -1 -1 -1
7 7 6 7 6 5 4 4 4 3 2 -1 -2 -2 -1 -1 -1 -2 -2 -2 -2 -2 -1 -2 -3 -2 -2 -1 -2 -2 -2 -2 -2 -2 -1 -1 -0 -0 -1 -1 -1 -2 -1 -1
8 7 6 6 4 4 3 1 -0 -1 -2 -2 -2 -2 -2 -2 -2 -2 -2 -2 -2 -2 -3 -4 -3 -4 -4 -4 -4 -5 -5 -4 -4 -4 -4 -3 -3 -2 -2 -1 -1 -1 -1 -1
6 6 5 4 3 1 0 -1 -2 -2 -2 -2 -2 -2 -2 -2 -2 -1 -1 -2 -4 -4 -5 -5 -5 -5 -6 -6 -6 -6 -6 -6 -6 -5 -5 -4 -4 -4 -3 -3 -2 -1 -1 -2
4 2 2 0 -0 -0 -1 -1 -2 -2 -2 -2 -3 -3 -2 -2 -2 -2 -2 -5 -6 -7 -6 -7 -7 -8 -8 -8 -8 -8 -8 -7 -8 -8 -8 -8 -6 -4 -3 -3 -3 -2 -2 -2
1 -0 -1 -1 -2 -2 -1 -1 -2 -3 -3 -3 -3 -3 -3 -3 -3 -3 -5 -6 -7 -8 -8 -8 -9 -10 -10 -10 -10 -10 -10 -11 -11 -11 -10 -9 -9 -8 -7 -6 -4 -3 -3 -3
-0 -1 -1 -2 -2 -3 -2 -3 -3 -3 -3 -4 -4 -4 -5 -5 -5 -5 -7 -8 -8 -9 -9 -9 -10 -10 -11 -11 -12 -12 -12 -12 -13 -13 -12 -12 -11 -11 -11 -11 -10 -10 -9 -8
-0 -1 -2 -2 -2 -3 -3 -3 -3 -3 -4 -5 -5 -5 -5 -6 -7 -8 -8 -9 -9 -9 -10 -10 -11 -11 -12 -12 -13 -13 -13 -13 -14 -15 -14 -14 -13 -13 -13 -13 -13 -13 -12 -12
-1 -1 -1 -1 -2 -2 -2 -3 -3 -3 -4 -5 -5 -6 -6 -7 -7 -8 -9 -9 -10 -10 -10 -11 -12 -12 -13 -13 -13 -14 -14 -15 -15 -16 -16 -16 -15 -15 -15 -15 -15 -14 -14 -14
-1 -1 -1 -1 -2 -3 -3 -3 -4 -5 -5 -6 -6 -7 -7 -8 -8 -9 -9 -10 -11 -11 -12 -12 -12 -13 -14 -14 -14 -15 -15 -16 -16 -17 -17 -17 -17 -17 -17 -17 -16 -16 -15 -15
-2 -3 -3 -4 -5 -5 -5 -5 -6 -6 -6 -7 -7 -8 -8 -9 -9 -10 -11 -11 -12 -12 -13 -13 -13 -14 -15 -15 -15 -16 -16 -17 -17 -18 -18 -19 -19 -19 -19 -18 -18 -17 -17 -17
-3 -3 -4 -6 -6 -6 -7 -7 -7 -8 -8 -8 -8 -9 -9 -10 -10 -11 -12 -12 -13 -13 -13 -14 -14 -15 -15 -16 -16 -17 -17 -18 -18 -19 -19 -20 -20 -20 -20 -20 -20 -19 -19 -18

GFSNGP_925_temp_018.txt.gz
Temp
20 21 22 22 22 22 20 19 17 18 18 20 22 20 20 19 20 19 18 19 18 16 14 16 15 15 14 12 13 13 12 12 12 11 11 10 9 8 8 7 7 7 7 6
20 18 20 21 20 20 20 22 19 20 20 20 18 17 17 18 18 18 18 18 19 18 14 15 15 14 14 13 13 12 12 12 11 11 10 9 7 7 6 6 6 6 7 6
17 15 17 14 18 20 20 20 21 19 20 17 16 16 16 16 16 16 16 16 16 17 14 14 14 14 14 14 13 12 11 11 10 9 8 7 6 5 5 5 5 6 5 6
12 12 13 18 19 20 18 18 17 17 17 16 16 15 15 15 15 14 15 14 14 14 16 16 16 15 15 13 11 10 10 9 7 7 6 5 4 4 4 4 5 4 5 5
12 12 15 19 21 19 18 18 18 16 17 16 15 15 15 16 16 14 13 12 11 12 12 15 15 13 12 11 10 10 7 7 7 6 5 4 4 4 3 4 4 4 4 4
10 12 13 15 18 20 18 14 17 16 17 17 16 10 13 15 13 10 9 8 8 9 10 11 10 11 9 6 5 4 5 5 4 4 4 4 3 3 3 3 3 3 3 3
6 9 11 15 18 19 16 14 17 15 15 16 14 13 13 10 9 8 7 6 5 5 5 5 6 6 4 4 3 3 4 4 4 4 4 4 3 3 3 3 2 2 2 2
10 9 13 16 19 17 14 15 15 16 15 12 12 11 10 9 8 6 5 5 4 4 3 4 4 4 3 3 3 4 4 4 4 4 3 2 3 3 3 2 2 2 2 3
12 12 14 17 17 16 15 15 16 14 13 13 11 10 9 7 6 5 4 4 4 4 4 4 5 6 5 4 4 5 5 4 2 2 2 2 2 2 2 2 2 2 2 2
14 17 16 15 14 14 14 12 11 11 12 11 10 8 6 5 5 4 4 4 4 3 3 3 3 3 3 3 3 3 3 3 3 2 2 2 1 1 1 2 2 1 2 1
14 14 14 13 12 12 11 9 9 8 9 9 7 6 6 5 4 3 3 3 3 3 3 3 3 3 3 3 3 3 2 2 2 2 1 1 1 1 1 2 1 2 2 2
11 14 12 12 11 10 10 8 8 7 6 6 5 5 4 3 3 3 3 3 3 3 3 3 3 3 3 3 3 3 2 2 2 2 2 2 1 1 2 2 2 2 2 1
13 12 10 8 8 8 7 6 6 5 4 3 3 3 3 2 3 3 3 4 4 3 3 3 3 2 2 2 2 2 1 1 2 2 2 2 2 1 -0 2 2 1 1 1
10 10 9 9 6 5 5 5 4 4 3 3 3 3 3 3 3 3 2 3 3 2 1 1 1 -0 -0 0 0 0 0 -0 -0 -1 -1 -1 -1 -1 -1 -1 -0 0 1 1
9 9 7 6 5 5 4 4 4 3 3 2 3 3 3 2 1 -1 -0 1 1 -0 -2 -2 -1 -2 -1 -1 -1 -2 -2 -2 -2 -3 -2 -2 -2 -2 -2 -1 -1 -1 -1 -1
7 6 6 5 5 4 4 3 3 2 2 1 -0 -0 -0 -1 -2 -2 -2 -2 -2 -3 -3 -3 -3 -4 -3 -3 -4 -4 -5 -5 -4 -5 -5 -4 -4 -3 -3 -2 -2 -1 -1 -2
5 5 5 5 5 5 4 4 3 1 -1 -2 -2 -2 -2 -2 -2 -2 -2 -3 -2 -4 -4 -5 -5 -5 -5 -5 -6 -6 -6 -6 -6 -6 -6 -6 -6 -6 -5 -5 -4 -4 -3 -2
7 6 6 4 4 3 1 -0 -1 -2 -1 -1 -2 -2 -2 -2 -2 -3 -3 -3 -4 -5 -6 -6 -6 -7 -7 -8 -8 -8 -8 -8 -8 -8 -8 -8 -8 -8 -8 -6 -5 -4 -4 -3
5 4 4 4 2 0 -1 -2 -2 -2 -2 -2 -2 -2 -2 -2 -3 -4 -4 -5 -6 -7 -8 -8 -8 -9 -9 -10 -10 -10 -10 -11 -11 -11 -11 -11 -10 -10 -9 -9 -9 -8 -7 -4
3 2 1 -0 -1 -1 -2 -2 -2 -2 -2 -2 -3 -3 -3 -3 -3 -4 -5 -8 -8 -8 -8 -9 -10 -10 -11 -11 -11 -12 -12 -13 -13 -13 -13 -13 -13 -12 -11 -12 -12 -11 -11 -10
0 -1 -1 -1 -2 -2 -2 -2 -3 -4 -4 -3 -3 -4 -4 -5 -5 -5 -6 -7 -9 -9 -9 -10 -11 -11 -12 -12 -13 -13 -13 -14 -14 -15 -15 -15 -14 -14 -14 -14 -13 -13 -13 -12
-1 -1 -2 -2 -2 -3 -3 -3 -3 -4 -4 -4 -5 -5 -5 -6 -7 -8 -9 -9 -10 -10 -10 -11 -12 -12 -12 -13 -13 -14 -14 -15 -15 -16 -16 -16 -16 -15 -15 -15 -15 -15 -14 -14
-1 -2 -2 -3 -3 -3 -3 -3 -4 -4 -5 -5 -5 -6 -7 -7 -8 -8 -9 -10 -10 -11 -11 -12 -12 -13 -13 -14 -14 -15 -15 -16 -16 -17 -17 -17 -17 -18 -17 -17 -17 -16 -16 -15
-2 -2 -3 -3 -3 -4 -4 -4 -4 -5 -5 -6 -6 -6 -7 -8 -9 -10 -10 -10 -11 -11 -12 -12 -13 -13 -14 -14 -15 -15 -16 -17 -17 -18 -18 -18 -19 -19 -19 -19 -19 -18 -18 -17
-2 -2 -3 -3 -3 -4 -4 -5 -5 -6 -6 -7 -8 -8 -8 -9 -9 -11 -11 -11 -12 -12 -13 -13 -14 -14 -15 -15 -16 -16 -17 -17 -18 -19 -19 -19 -19 -20 -20 -20 -20 -20 -19 -19
-3 -4 -5 -5 -6 -6 -6 -6 -7 -7 -7 -8 -8 -9 -9 -10 -10 -11 -11 -12 -13 -13 -14 -14 -15 -15 -15 -16 -17 -17 -17 -18 -18 -19 -20 -20 -20 -20 -21 -21 -21 -21 -20 -20
-6 -6 -7 -7 -8 -7 -7 -8 -8 -9 -9 -9 -9 -10 -10 -11 -11 -12 -12 -13 -14 -14 -15 -15 -16 -16 -16 -17 -17 -18 -18 -18 -19 -20 -20 -20 -20 -21 -21 -22 -21 -21 -21 -21

GFSNGP_925_temp_021.txt.gz
Temp
18 20 20 21 21 18 18 18 16 18 16 19 20 19 17 17 20 18 16 15 14 13 12 14 14 14 13 12 11 11 10 10 10 11 11 10 10 9 9 8 7 7 6 5
18 18 18 20 19 19 19 20 18 18 18 16 17 17 15 16 16 15 15 15 17 15 14 14 14 14 14 12 11 11 11 10 10 10 9 9 9 8 7 6 6 5 5 5
17 15 16 14 16 18 19 19 19 18 18 17 16 16 14 13 14 14 14 14 13 13 14 15 15 15 14 13 12 12 11 9 9 9 8 8 7 5 5 5 5 5 4 4
11 12 13 17 18 18 18 17 17 16 15 16 14 14 13 14 13 13 13 11 10 9 11 13 14 13 12 11 10 9 8 8 7 7 6 5 5 5 5 4 4 3 3 4
13 12 15 18 18 17 17 18 17 15 14 14 14 14 14 14 11 10 9 8 7 8 8 10 11 11 11 9 8 7 6 5 4 4 4 4 4 4 4 4 3 3 3 3
9 13 13 15 17 18 16 14 17 15 14 14 15 10 12 11 9 7 6 5 5 6 6 7 7 8 7 4 4 3 3 3 4 4 3 3 3 4 3 3 3 3 3 3
7 10 11 14 17 17 16 15 15 14 14 13 14 11 9 7 6 5 4 4 5 4 3 4 5 5 3 3 3 3 4 4 4 4 3 3 4 3 2 2 3 3 3 2
7 9 14 15 17 16 14 14 14 13 13 12 9 8 7 6 5 5 4 4 4 3 3 3 3 4 3 3 4 4 4 4 4 3 3 2 2 2 3 2 2 2 2 2
12 12 14 15 17 16 13 14 13 13 12 11 9 8 6 5 4 4 3 3 3 3 3 4 4 4 3 3 3 3 3 3 3 2 2 2 2 2 2 2 1 1 1 1
13 15 15 15 13 13 14 13 12 12 11 10 7 6 5 4 4 3 3 3 3 3 3 2 3 3 3 3 3 3 3 2 2 2 2 2 1 1 1 1 1 1 1 1
12 13 13 12 11 9 8 8 8 8 8 7 6 5 4 3 3 2 2 3 3 3 2 2 3 2 2 2 2 2 2 2 2 1 1 1 1 1 1 1 1 1 1 1
11 13 13 11 9 9 8 7 7 6 5 5 5 4 3 2 2 2 2 3 3 2 2 2 1 1 1 1 1 1 0 0 0 -0 -0 -0 -0 0 1 1 1 1 1 1
14 10 9 7 7 7 6 5 5 5 4 3 3 3 3 2 2 3 3 2 1 1 0 0 -0 -1 -1 -1 -1 -1 -1 -2 -2 -2 -2 -3 -3 -3 -3 -1 -1 -0 0 1
8 8 7 7 5 5 5 4 4 3 3 2 2 2 1 1 1 1 0 -0 -0 -1 -2 -2 -2 -3 -3 -2 -2 -2 -3 -3 -4 -4 -5 -5 -5 -4 -4 -3 -3 -2 -2 -2
6 8 7 5 4 4 4 3 3 2 1 1 2 1 1 -0 -2 -2 -2 -2 -2 -3 -3 -3 -4 -5 -4 -4 -4 -5 -5 -6 -6 -6 -6 -6 -6 -6 -6 -6 -6 -5 -5 -4
6 5 5 4 4 4 3 3 2 2 1 1 0 -0 -1 -2 -2 -3 -2 -2 -3 -5 -5 -5 -6 -6 -6 -6 -6 -6 -7 -7 -8 -8 -8 -8 -8 -8 -8 -8 -8 -7 -6 -6
5 4 4 3 3 3 3 3 2 1 -0 -1 -2 -2 -1 -2 -3 -3 -3 -4 -5 -6 -6 -7 -8 -7 -8 -8 -9 -9 -10 -10 -9 -10 -10 -10 -10 -10 -10 -10 -9 -9 -10 -10
7 6 5 4 3 2 1 0 -1 -1 -1 -2 -2 -2 -2 -3 -4 -5 -4 -5 -6 -7 -8 -8 -8 -9 -10 -10 -10 -10 -11 -11 -11 -12 -12 -12 -13 -12 -12 -12 -12 -12 -12 -11
5 4 3 3 2 1 -0 -1 -2 -2 -2 -2 -3 -4 -4 -4 -5 -6 -6 -6 -7 -8 -9 -9 -10 -10 -11 -11 -11 -12 -13 -13 -13 -13 -14 -14 -14 -14 -14 -14 -14 -14 -13 -13
3 2 1 0 -1 -1 -2 -2 -2 -3 -3 -3 -3 -4 -5 -5 -5 -6 -6 -9 -9 -9 -10 -10 -10 -11 -12 -12 -13 -13 -14 -14 -15 -15 -15 -16 -16 -16 -16 -16 -16 -16 -15 -15
1 -0 -1 -1 -2 -2 -2 -3 -3 -4 -4 -3 -4 -5 -6 -6 -6 -7 -7 -8 -9 -10 -10 -11 -11 -12 -12 -13 -14 -14 -14 -15 -16 -16 -17 -17 -17 -17 -17 -18 -17 -17 -17 -16
-1 -1 -2 -2 -3 -4 -4 -3 -3 -4 -4 -5 -5 -6 -6 -8 -8 -8 -9 -9 -10 -10 -11 -11 -12 -13 -13 -14 -14 -15 -15 -16 -17 -17 -18 -18 -18 -19 -19 -19 -19 -19 -18 -18
-1 -2 -2 -3 -3 -4 -4 -4 -4 -4 -5 -5 -6 -6 -7 -8 -8 -9 -9 -10 -10 -11 -12 -12 -13 -13 -14 -14 -15 -15 -16 -17 -17 -18 -18 -19 -19 -20 -20 -20 -20 -20 -20 -20
-2 -3 -3 -4 -4 -4 -5 -6 -5 -5 -6 -6 -6 -7 -7 -8 -10 -10 -10 -11 -11 -12 -12 -13 -14 -14 -15 -15 -16 -16 -17 -17 -18 -19 -19 -19 -19 -19 -20 -20 -21 -21 -21 -20
-3 -3 -4 -4 -3 -4 -5 -6 -6 -7 -7 -8 -8 -8 -8 -9 -9 -11 -11 -11 -12 -13 -13 -14 -14 -15 -15 -16 -16 -17 -17 -18 -18 -19 -20 -20 -20 -20 -20 -20 -21 -21 -21 -21
-3 -5 -5 -6 -6 -6 -6 -6 -7 -8 -8 -9 -9 -9 -9 -10 -11 -11 -12 -13 -13 -14 -14 -15 -15 -16 -16 -17 -17 -18 -18 -18 -19 -20 -20 -21 -20 -20 -21 -21 -21 -21 -21 -21
-6 -7 -7 -7 -8 -8 -8 -8 -8 -9 -9 -9 -9 -10 -11 -11 -12 -12 -13 -13 -14 -15 -15 -16 -16 -16 -17 -17 -18 -18 -19 -19 -20 -20 -21 -21 -21 -21 -21 -21 -21 -21 -21 -21

GFSNGP_925_temp_024.txt.gz
Temp
17 18 18 19 20 16 17 17 16 18 15 18 17 17 17 16 16 15 15 15 14 13 12 13 13 13 13 13 12 11 10 9 8 9 10 9 9 9 9 8 8 7 6 6
18 17 18 19 18 17 17 17 17 17 17 16 17 16 14 15 14 13 13 12 12 12 13 13 13 13 13 13 12 11 10 10 9 9 8 8 8 8 8 7 6 5 5 4
17 14 17 14 16 17 17 17 18 16 17 15 16 15 14 13 13 12 11 10 10 9 9 11 11 12 12 11 10 9 8 8 8 8 7 7 8 7 6 5 5 4 4 4
11 12 13 17 17 17 16 16 16 17 16 14 13 13 12 12 11 10 9 8 7 6 7 9 11 11 11 10 9 8 8 7 7 7 6 6 5 5 4 4 4 3 3 3
12 12 15 18 17 16 16 17 15 14 13 12 12 12 11 9 8 7 6 5 5 5 5 6 7 8 8 7 6 6 5 5 4 5 4 4 4 3 3 3 3 3 3 1
9 12 13 15 17 16 17 15 14 13 12 12 12 10 11 8 6 5 4 4 4 4 5 5 5 6 5 4 4 3 3 3 3 4 3 3 3 3 3 3 3 2 1 1
6 10 12 14 17 16 16 15 13 13 12 11 13 11 7 5 4 4 3 3 3 3 3 3 4 4 3 2 2 3 3 4 3 3 4 4 4 3 3 2 2 2 2 2
8 9 14 14 16 15 14 13 12 12 12 11 7 6 5 5 4 3 3 3 3 2 2 3 3 3 2 3 3 4 4 4 4 3 3 3 2 2 2 1 1 1 1 1
12 13 14 13 15 14 12 12 12 12 11 9 7 6 5 4 3 2 2 2 2 2 2 3 3 3 2 2 3 3 3 2 2 2 2 2 1 1 1 1 1 1 0 0
13 14 13 14 14 13 14 13 11 11 10 9 7 5 4 3 3 2 2 2 2 2 1 1 2 2 2 2 2 2 1 1 1 1 1 1 1 0 0 0 0 0 -0 -1
12 13 13 13 12 11 9 8 7 7 7 6 5 4 3 3 2 1 2 2 2 1 0 0 1 0 1 1 1 1 0 -0 -1 -1 -1 -1 -1 -1 -1 -1 -1 -2 -2 -2
12 12 13 13 9 8 8 7 6 6 5 5 5 4 3 2 2 1 1 1 1 0 -0 -1 -1 -1 -1 -1 -1 -1 -1 -2 -3 -3 -3 -3 -4 -4 -3 -3 -3 -3 -3 -3
15 10 7 6 6 6 6 5 5 5 4 3 3 3 2 1 1 1 1 0 -1 -2 -2 -2 -3 -3 -3 -2 -2 -3 -4 -4 -5 -5 -6 -6 -6 -6 -7 -6 -6 -6 -6 -6
7 8 7 7 6 4 4 3 3 3 3 2 2 1 1 0 0 -1 -2 -2 -3 -3 -3 -3 -4 -5 -4 -4 -4 -4 -5 -6 -6 -7 -7 -7 -8 -8 -8 -8 -8 -8 -8 -8
6 7 7 4 4 3 3 3 2 1 1 1 1 1 1 -0 -1 -2 -2 -3 -3 -4 -4 -5 -5 -6 -6 -5 -6 -6 -7 -8 -8 -8 -9 -9 -9 -9 -10 -9 -9 -9 -9 -10
5 5 5 4 3 3 2 2 1 1 1 1 1 0 -1 -2 -2 -2 -2 -3 -4 -6 -7 -6 -7 -7 -7 -7 -8 -9 -9 -9 -10 -10 -10 -11 -11 -12 -11 -12 -11 -11 -11 -12
4 4 3 3 3 2 2 2 2 1 1 0 -1 -2 -2 -2 -3 -4 -5 -5 -6 -7 -7 -7 -8 -9 -9 -10 -10 -11 -11 -11 -11 -11 -12 -13 -13 -13 -13 -13 -14 -14 -14 -14
7 5 5 4 3 2 1 1 0 0 -0 -1 -2 -3 -3 -3 -3 -6 -6 -6 -7 -8 -9 -9 -9 -10 -11 -11 -11 -12 -12 -12 -12 -13 -14 -14 -15 -15 -15 -15 -16 -16 -16 -15
5 4 3 2 2 1 0 -0 -1 -2 -3 -3 -3 -4 -4 -5 -5 -6 -6 -7 -8 -8 -10 -10 -10 -10 -11 -12 -12 -12 -13 -14 -14 -15 -15 -16 -16 -16 -17 -17 -17 -17 -17 -17
2 1 1 0 -0 -1 -2 -2 -3 -3 -4 -3 -4 -5 -6 -6 -6 -7 -7 -9 -9 -9 -10 -10 -11 -11 -12 -13 -13 -14 -14 -15 -15 -16 -17 -17 -17 -17 -18 -18 -18 -19 -18 -18
0 -0 -1 -1 -2 -3 -3 -3 -3 -4 -4 -4 -5 -6 -7 -7 -7 -7 -8 -9 -10 -10 -10 -11 -11 -12 -13 -13 -14 -14 -15 -16 -16 -17 -18 -18 -18 -18 -19 -19 -19 -19 -19 -20
-1 -2 -2 -3 -3 -4 -4 -3 -4 -4 -4 -5 -6 -6 -7 -8 -8 -8 -9 -9 -10 -10 -11 -11 -12 -13 -13 -14 -15 -15 -16 -16 -17 -18 -18 -19 -19 -19 -19 -19 -20 -20 -20 -20
-2 -2 -3 -3 -4 -5 -5 -4 -5 -5 -5 -6 -6 -7 -7 -8 -8 -9 -10 -11 -10 -11 -11 -12 -13 -14 -14 -15 -15 -16 -16 -17 -18 -18 -19 -19 -20 -20 -20 -20 -20 -21 -21 -21
-2 -3 -4 -5 -5 -5 -5 -6 -6 -6 -6 -6 -6 -7 -7 -9 -10 -10 -10 -11 -11 -12 -12 -13 -14 -14 -15 -15 -16 -17 -17 -18 -18 -19 -19 -20 -20 -20 -20 -20 -20 -21 -21 -21
-4 -4 -5 -4 -4 -5 -6 -7 -7 -7 -7 -8 -8 -8 -9 -9 -9 -11 -11 -11 -12 -13 -13 -14 -15 -15 -16 -16 -17 -17 -18 -18 -18 -19 -20 -20 -20 -20 -20 -21 -21 -21 -21 -21
-5 -5 -6 -6 -6 -6 -7 -7 -8 -8 -8 -9 -9 -9 -10 -10 -10 -11 -12 -12 -13 -14 -14 -15 -15 -16 -17 -17 -17 -18 -18 -19 -19 -19 -20 -21 -21 -21 -21 -21 -21 -21 -21 -21
-7 -7 -7 -8 -8 -8 -8 -8 -9 -9 -9 -9 -9 -10 -10 -11 -12 -12 -13 -13 -14 -15 -15 -16 -16 -17 -17 -17 -18 -18 -19 -19 -20 -20 -21 -21 -21 -21 -21 -22 -22 -22 -22 -21

GFSNGP_925_temp_027.txt.gz
Temp
18 19 19 20 20 18 19 19 20 21 18 21 21 21 20 18 17 16 16 16 16 16 15 14 14 13 13 13 12 12 10 9 9 8 8 7 7 7 7 8 8 8 7 6
18 17 17 19 19 19 19 18 18 18 18 20 19 17 17 16 16 15 14 14 14 13 13 13 13 13 13 12 12 11 9 9 8 7 7 7 7 7 7 7 7 6 5 5
18 15 17 16 17 18 18 18 19 19 21 18 18 16 16 15 15 14 13 12 11 11 10 9 10 10 11 10 10 9 8 8 7 7 7 7 7 7 6 6 5 4 4 3
15 14 17 20 17 19 19 18 18 18 18 18 17 14 14 14 14 12 11 10 9 9 8 7 7 7 8 8 7 7 6 6 6 6 6 5 5 4 4 4 4 3 2 2
15 16 17 18 17 18 18 21 18 18 17 15 14 14 12 10 10 9 8 7 6 6 6 6 6 5 6 5 5 5 5 4 4 4 4 4 3 3 3 3 2 2 2 3
12 16 17 18 18 17 18 19 18 17 15 14 14 17 16 9 8 7 6 6 5 5 5 5 4 5 5 4 4 4 4 4 4 3 3 3 3 3 3 3 3 3 3 2
12 15 16 16 17 17 18 20 16 16 15 15 16 15 12 8 6 6 5 4 4 4 4 4 4 4 4 4 3 3 3 4 4 4 3 3 3 3 3 2 2 1 1 2
12 14 17 15 15 18 18 15 15 15 15 14 10 8 8 7 6 5 5 4 4 4 3 3 4 4 4 3 3 3 3 2 2 2 2 2 2 2 1 1 1 0 0 0
16 17 16 15 17 16 15 16 14 15 13 11 9 8 7 6 5 5 4 4 4 3 2 2 2 3 2 1 2 2 1 1 1 1 1 1 0 0 0 0 -0 -0 -0 -0
16 16 15 15 14 14 14 15 14 15 13 11 9 7 6 5 5 4 4 3 3 2 2 1 0 0 0 1 1 1 -0 -1 -1 -1 -1 -1 -1 -1 -1 -1 -2 -2 -2 -2
14 14 13 14 14 14 12 11 11 11 11 10 8 6 6 5 4 4 3 2 2 1 0 -1 -1 -2 -1 -0 0 -1 -2 -2 -2 -3 -2 -2 -3 -3 -3 -3 -4 -4 -3 -4
15 17 17 16 14 11 11 11 10 9 8 8 7 6 5 4 3 3 2 1 0 -1 -2 -2 -3 -3 -3 -2 -1 -2 -3 -3 -4 -4 -4 -4 -4 -4 -6 -6 -6 -6 -6 -7
17 13 10 8 8 9 9 8 8 8 7 6 5 5 4 3 2 1 1 0 -1 -2 -3 -3 -4 -4 -5 -3 -3 -5 -5 -5 -5 -6 -6 -6 -6 -6 -6 -6 -8 -8 -8 -8
9 10 10 9 10 7 7 6 5 5 5 4 4 3 2 1 1 0 -1 -2 -3 -3 -4 -4 -5 -6 -6 -6 -6 -6 -7 -7 -7 -7 -7 -8 -8 -8 -8 -8 -8 -8 -9 -10
9 7 9 6 5 5 4 4 4 3 3 3 2 2 1 1 -0 -1 -2 -3 -4 -4 -4 -5 -6 -7 -7 -7 -7 -7 -8 -8 -9 -9 -9 -10 -10 -10 -9 -10 -10 -10 -10 -10
6 6 6 6 5 4 4 4 3 3 3 2 2 1 1 -1 -2 -3 -4 -4 -3 -5 -6 -7 -7 -8 -8 -8 -8 -9 -9 -10 -10 -10 -10 -11 -11 -11 -11 -11 -11 -12 -12 -12
5 4 4 4 4 4 4 4 3 2 2 1 -0 -1 -1 -2 -3 -4 -5 -6 -6 -7 -8 -8 -8 -8 -9 -9 -9 -10 -11 -11 -12 -12 -12 -12 -13 -13 -13 -13 -13 -13 -13 -14
8 6 6 5 4 3 2 2 2 1 1 -1 -2 -2 -3 -3 -4 -5 -7 -8 -8 -9 -9 -9 -9 -10 -10 -11 -11 -12 -12 -13 -13 -13 -13 -14 -15 -15 -15 -15 -15 -15 -15 -15
5 4 3 3 2 2 1 1 -1 -2 -3 -3 -3 -3 -4 -5 -5 -6 -7 -8 -8 -8 -9 -10 -10 -11 -11 -12 -12 -13 -13 -14 -14 -15 -15 -16 -16 -17 -17 -17 -17 -17 -17 -17
2 1 1 1 -0 -1 -2 -3 -3 -3 -4 -3 -4 -5 -5 -7 -6 -7 -7 -7 -8 -9 -10 -10 -11 -12 -12 -13 -13 -14 -14 -15 -16 -16 -17 -17 -18 -18 -18 -18 -19 -18 -18 -19
0 -0 -1 -1 -2 -2 -3 -3 -3 -3 -4 -4 -4 -5 -6 -7 -7 -7 -8 -8 -10 -10 -10 -11 -12 -13 -13 -14 -14 -14 -15 -16 -17 -18 -18 -19 -19 -19 -19 -20 -20 -20 -19 -20
-1 -2 -2 -3 -3 -3 -4 -4 -4 -5 -5 -5 -6 -7 -7 -8 -8 -8 -8 -9 -10 -10 -11 -12 -12 -13 -13 -14 -15 -15 -16 -16 -17 -18 -19 -20 -20 -20 -20 -21 -21 -21 -21 -21
-2 -2 -3 -3 -4 -5 -5 -5 -6 -6 -6 -7 -7 -7 -7 -8 -8 -8 -9 -11 -11 -11 -12 -12 -13 -14 -14 -15 -15 -16 -16 -17 -17 -18 -19 -20 -21 -21 -21 -21 -21 -22 -22 -22
-3 -4 -5 -5 -5 -5 -5 -6 -7 -7 -7 -7 -7 -7 -8 -9 -10 -10 -10 -11 -11 -12 -12 -13 -14 -14 -15 -15 -16 -16 -17 -18 -18 -18 -19 -20 -20 -20 -21 -21 -21 -21 -21 -22
-4 -4 -5 -5 -5 -6 -6 -6 -7 -7 -8 -8 -9 -9 -9 -9 -9 -11 -11 -12 -12 -13 -13 -14 -15 -15 -16 -16 -16 -17 -17 -18 -19 -19 -19 -20 -20 -21 -21 -21 -21 -22 -21 -21
-6 -6 -6 -6 -6 -7 -7 -7 -8 -8 -9 -9 -9 -9 -10 -10 -11 -11 -12 -12 -13 -13 -14 -15 -15 -16 -16 -17 -17 -18 -18 -18 -19 -19 -20 -20 -21 -21 -22 -22 -22 -22 -22 -22
-8 -8 -8 -9 -9 -9 -9 -9 -9 -10 -9 -10 -10 -10 -11 -11 -12 -12 -13 -13 -14 -14 -15 -16 -16 -17 -17 -17 -18 -18 -19 -19 -20 -20 -20 -21 -21 -22 -22 -22 -22 -22 -22 -22

GFSNGP_925_temp_030.txt.gz
Temp
25 25 25 25 25 25 24 24 24 25 25 26 27 27 27 24 22 22 22 21 21 22 21 20 18 17 17 16 14 14 14 14 14 12 12 11 10 10 9 8 6 5 6 6
23 24 23 23 25 25 25 25 25 25 25 27 27 25 24 22 22 21 20 19 19 19 19 18 18 18 16 15 13 13 13 13 12 11 10 10 9 7 5 5 5 6 6 5
22 21 21 19 22 24 24 25 24 24 25 27 25 24 24 22 21 20 19 18 17 17 16 16 15 15 14 13 12 12 12 11 10 10 9 8 7 6 5 5 5 5 4 4
21 16 18 24 23 25 24 25 25 25 25 25 25 23 21 21 20 18 17 16 16 15 14 14 13 12 12 12 11 11 10 9 9 9 8 7 6 5 5 5 5 4 3 4
18 20 23 22 21 22 23 24 26 25 26 25 21 19 17 18 19 17 16 15 13 13 12 12 11 11 11 10 10 9 9 8 8 8 7 7 6 5 5 5 4 3 3 3
17 20 19 24 25 24 24 23 26 25 25 22 20 20 22 15 14 13 13 12 12 11 11 10 10 10 10 9 8 8 7 7 7 7 6 6 6 5 5 4 4 3 3 2
19 19 22 24 23 23 22 23 25 25 24 21 20 22 18 14 13 12 11 10 10 10 10 9 9 9 9 8 7 7 6 6 6 6 5 4 4 3 3 3 3 3 3 3
19 18 19 22 20 23 25 23 23 22 23 21 19 16 14 13 12 11 10 10 9 9 9 9 9 8 8 7 6 6 5 4 4 3 3 3 4 4 4 4 3 3 3 3
21 22 24 21 25 24 23 24 21 22 21 20 15 14 13 12 12 11 10 10 9 8 7 7 7 6 6 5 5 5 4 4 3 3 3 3 3 3 3 3 3 2 2 2
19 23 22 21 23 21 21 22 21 21 20 17 16 14 13 12 11 11 10 9 8 7 6 5 5 5 4 4 4 4 3 3 2 2 2 2 2 2 2 1 0 0 0 -0
20 22 18 20 21 22 20 19 19 20 19 17 15 14 13 11 11 10 9 8 7 6 5 4 3 3 3 3 3 2 2 1 1 0 1 1 0 -1 -2 -2 -4 -4 -3 -4
20 24 23 25 23 21 19 18 18 18 17 16 15 13 12 11 10 9 7 6 5 4 3 2 2 1 1 1 1 1 1 0 -2 -1 -1 -1 -1 -1 -4 -5 -6 -7 -7 -8
22 19 21 16 17 19 18 18 17 17 17 15 14 12 11 10 8 7 6 5 4 3 1 1 0 -0 -1 -1 -1 -1 -1 -2 -2 -2 -2 -3 -3 -3 -3 -4 -6 -7 -8 -9
15 15 16 15 18 14 15 15 13 15 14 13 11 10 9 8 5 5 5 4 2 1 -0 -1 -1 -2 -2 -2 -2 -3 -4 -5 -3 -3 -4 -4 -5 -5 -5 -5 -5 -5 -7 -9
14 13 13 14 13 12 12 11 11 11 10 10 9 8 7 5 5 4 2 1 0 -1 -1 -2 -2 -3 -3 -3 -3 -4 -4 -5 -5 -6 -7 -7 -7 -6 -6 -7 -7 -7 -7 -8
11 11 11 11 11 10 10 10 10 9 8 8 7 6 5 5 3 2 0 -1 -1 -2 -2 -5 -4 -4 -4 -4 -4 -5 -7 -9 -8 -7 -7 -7 -8 -8 -7 -8 -8 -8 -8 -9
10 9 8 9 9 8 8 8 8 7 6 6 5 4 3 1 0 -1 -3 -5 -6 -6 -6 -6 -5 -6 -6 -6 -5 -6 -7 -8 -10 -8 -8 -9 -9 -9 -9 -9 -10 -10 -10 -11
11 11 10 9 8 7 7 6 6 5 5 3 -1 -2 -2 -3 -4 -6 -6 -7 -7 -7 -7 -7 -7 -8 -8 -8 -8 -9 -9 -9 -10 -10 -10 -10 -11 -11 -11 -11 -11 -11 -12 -12
9 8 8 8 7 6 5 3 1 -0 -1 -2 -2 -3 -4 -4 -5 -6 -7 -7 -7 -7 -8 -9 -10 -9 -10 -11 -10 -10 -11 -11 -11 -11 -12 -13 -12 -12 -13 -13 -13 -13 -13 -13
3 4 2 1 1 -0 -1 -2 -2 -2 -3 -3 -3 -4 -5 -5 -6 -6 -6 -5 -6 -7 -9 -10 -10 -10 -11 -12 -12 -12 -12 -12 -12 -12 -13 -14 -13 -14 -14 -14 -15 -14 -14 -14
1 0 -1 -1 -2 -2 -2 -2 -2 -2 -3 -3 -3 -4 -6 -7 -7 -7 -7 -7 -9 -10 -10 -11 -10 -11 -11 -12 -12 -13 -13 -13 -13 -14 -14 -15 -15 -15 -15 -15 -15 -15 -15 -15
-1 -2 -2 -2 -2 -2 -3 -3 -4 -4 -5 -6 -6 -7 -7 -7 -8 -8 -8 -7 -9 -10 -10 -10 -11 -12 -13 -13 -13 -13 -13 -14 -14 -15 -15 -15 -16 -16 -16 -16 -16 -17 -17 -17
-2 -3 -3 -3 -4 -4 -5 -5 -5 -6 -6 -6 -6 -6 -6 -7 -7 -6 -7 -9 -10 -11 -11 -11 -13 -13 -13 -14 -14 -14 -14 -15 -15 -15 -16 -16 -17 -17 -17 -17 -18 -18 -18 -18
-3 -4 -4 -4 -5 -5 -5 -6 -6 -7 -7 -8 -8 -7 -7 -7 -8 -9 -10 -11 -11 -11 -12 -13 -14 -14 -14 -14 -15 -15 -15 -15 -16 -16 -16 -17 -17 -18 -18 -19 -19 -19 -19 -20
-4 -4 -5 -5 -5 -5 -6 -6 -6 -6 -7 -7 -8 -8 -9 -9 -8 -10 -11 -12 -12 -12 -12 -14 -14 -15 -15 -15 -15 -16 -16 -16 -16 -17 -17 -17 -18 -18 -19 -19 -20 -20 -21 -21
-5 -6 -6 -6 -6 -6 -6 -6 -6 -7 -7 -7 -8 -9 -10 -11 -11 -11 -12 -13 -13 -13 -13 -14 -15 -16 -15 -16 -16 -16 -17 -17 -17 -17 -18 -19 -19 -19 -20 -20 -21 -21 -22 -22
-8 -7 -7 -8 -8 -8 -8 -8 -8 -8 -8 -8 -8 -10 -10 -11 -12 -12 -13 -13 -14 -14 -15 -15 -15 -16 -16 -16 -17 -17 -17 -17 -18 -19 -19 -19 -20 -20 -21 -22 -22 -23 -23 -24

GFSNGP_925_temp_033.txt.gz
Temp
25 26 27 26 26 26 26 26 24 25 26 28 29 29 29 28 28 27 27 26 26 26 25 23 22 21 21 19 18 18 18 18 16 15 14 13 12 11 9 8 7 6 5 5
24 26 26 26 27 27 27 27 26 27 27 29 29 29 28 28 26 26 25 25 24 24 23 22 21 20 18 17 16 16 16 16 14 14 13 13 12 10 9 8 7 6 5 6
22 25 25 23 25 26 26 27 27 25 27 29 28 28 28 28 26 25 24 23 22 22 21 20 19 18 17 16 16 15 15 14 13 12 11 10 10 9 8 7 6 5 5 5
22 19 19 24 27 27 26 27 28 27 28 28 28 28 28 27 26 24 22 21 20 19 18 18 17 16 16 15 14 14 13 12 12 11 10 10 9 8 6 5 5 5 5 5
20 20 23 25 26 25 25 26 28 27 28 28 28 25 24 25 24 22 21 20 19 18 17 16 16 15 15 14 13 13 12 11 11 10 10 9 8 7 7 7 7 6 6 5
20 20 20 24 26 27 27 24 28 28 28 27 26 22 25 22 22 20 19 17 17 16 15 15 14 14 14 13 12 11 11 10 10 9 9 8 6 6 5 5 5 5 3 4
19 20 23 26 27 28 23 24 28 28 27 27 26 25 24 21 18 18 17 16 15 15 15 14 13 13 12 11 11 10 10 9 8 7 6 5 5 4 4 4 4 4 4 5
20 20 19 26 26 24 26 27 27 27 27 26 25 22 20 18 18 17 17 15 15 14 13 13 13 12 11 10 9 8 7 7 6 5 5 6 6 6 6 6 5 5 4 4
22 22 24 25 26 26 27 27 26 26 27 26 22 20 18 18 17 16 15 15 14 13 12 12 11 11 10 9 8 7 7 7 6 6 6 6 6 6 6 5 4 4 3 3
21 23 25 26 26 27 27 26 27 26 26 24 21 19 18 17 16 16 15 14 13 12 11 10 10 10 8 8 7 7 6 6 5 5 5 5 5 4 4 2 2 2 1 1
21 23 24 24 24 26 26 24 24 24 24 23 21 19 18 17 16 16 15 13 12 11 10 9 8 7 7 7 6 6 5 4 4 3 4 3 2 1 0 -3 -3 -2 -2 -3
20 23 23 24 25 26 25 24 22 23 23 21 20 19 18 17 16 15 14 12 11 9 8 7 6 6 6 5 5 4 4 3 2 2 2 2 2 -1 -3 -3 -4 -5 -6 -7
21 22 22 23 21 22 25 24 23 22 22 21 20 19 17 16 15 13 11 11 9 8 7 6 5 4 4 3 3 3 2 1 -1 1 1 0 -0 -0 0 -5 -4 -5 -6 -7
22 19 19 20 22 20 21 22 19 21 21 20 19 17 16 14 12 11 10 9 7 6 5 4 3 2 1 1 0 -0 -1 -1 0 -0 -1 -1 -2 -2 -2 -3 -3 -3 -6 -6
19 18 17 17 17 17 18 18 17 19 19 18 16 15 13 12 11 10 8 6 5 4 3 1 -0 -0 -0 -0 -0 -1 -1 -2 -2 -3 -4 -4 -4 -4 -4 -4 -4 -5 -5 -5
16 15 15 15 16 15 15 15 16 15 15 14 14 12 11 9 8 6 4 3 2 1 -2 -2 -2 -2 -2 -2 -2 -3 -6 -6 -4 -4 -5 -5 -5 -5 -5 -5 -6 -6 -6 -7
14 15 14 13 13 13 13 13 13 12 12 11 10 9 8 5 1 -2 -3 -4 -5 -5 -5 -4 -4 -5 -4 -3 -3 -3 -4 -6 -7 -6 -6 -6 -7 -7 -7 -7 -7 -7 -8 -9
13 13 13 14 12 11 11 10 10 9 8 5 1 1 -1 -2 -3 -4 -6 -7 -7 -7 -7 -8 -8 -7 -6 -6 -6 -6 -6 -7 -7 -8 -8 -8 -9 -9 -9 -9 -9 -9 -9 -9
10 10 11 10 10 9 7 4 1 -0 -1 -1 -2 -3 -4 -5 -6 -6 -7 -7 -7 -7 -8 -9 -9 -8 -9 -10 -8 -8 -9 -9 -9 -9 -9 -10 -10 -9 -10 -10 -10 -11 -11 -11
2 1 1 0 0 -0 -0 -1 -1 -2 -3 -3 -4 -4 -5 -5 -6 -6 -5 -6 -6 -8 -8 -9 -9 -9 -10 -11 -10 -10 -10 -10 -10 -10 -10 -12 -11 -11 -11 -11 -12 -11 -12 -12
-1 -1 -1 -1 -1 -1 -1 -2 -2 -2 -3 -3 -4 -4 -5 -5 -6 -6 -6 -7 -9 -9 -10 -9 -9 -9 -10 -10 -10 -10 -11 -11 -11 -11 -11 -11 -12 -11 -12 -12 -12 -12 -13 -13
-2 -2 -2 -3 -3 -3 -3 -4 -4 -5 -5 -5 -6 -6 -6 -6 -7 -7 -7 -8 -9 -9 -9 -9 -10 -11 -12 -11 -11 -11 -11 -11 -12 -12 -12 -12 -12 -13 -13 -13 -13 -14 -14 -14
-2 -3 -3 -4 -4 -5 -5 -5 -5 -5 -5 -5 -6 -6 -6 -6 -6 -6 -7 -8 -9 -9 -9 -11 -12 -12 -12 -12 -12 -12 -12 -12 -12 -13 -13 -13 -13 -14 -14 -14 -15 -15 -16 -16
-3 -4 -4 -4 -4 -4 -4 -6 -6 -7 -7 -7 -7 -6 -6 -7 -8 -9 -9 -10 -10 -10 -11 -12 -13 -13 -13 -12 -12 -13 -13 -13 -13 -13 -13 -14 -14 -15 -15 -15 -16 -16 -17 -17
-4 -4 -4 -4 -4 -4 -5 -5 -6 -6 -6 -7 -7 -7 -8 -8 -7 -9 -9 -11 -11 -11 -11 -13 -14 -14 -13 -13 -13 -14 -14 -14 -14 -15 -15 -15 -15 -16 -16 -16 -17 -17 -18 -19
-5 -5 -6 -6 -5 -5 -5 -5 -5 -6 -6 -6 -7 -8 -8 -9 -9 -9 -11 -11 -11 -12 -12 -12 -13 -14 -14 -14 -14 -14 -15 -15 -15 -15 -16 -16 -16 -16 -17 -17 -18 -18 -19 -19
-6 -6 -6 -6 -7 -7 -7 -7 -7 -8 -8 -7 -7 -8 -9 -9 -10 -10 -11 -11 -11 -12 -12 -13 -13 -14 -14 -15 -15 -15 -15 -16 -16 -16 -17 -17 -17 -17 -18 -18 -19 -20 -21 -21

GFSNGP_925_temp_039.txt.gz
Temp
22 23 23 23 23 23 23 22 21 21 21 22 23 24 25 23 25 25 24 23 21 20 19 19 20 20 19 19 19 18 17 16 14 14 14 13 12 12 11 10 10 10 10 9
19 22 23 22 23 23 23 23 23 23 22 24 25 23 20 23 23 23 23 23 23 20 19 19 19 18 18 18 16 17 15 14 14 14 13 12 12 11 10 10 9 8 7 7
18 20 21 18 21 23 23 24 24 21 22 25 24 24 23 23 23 23 22 22 21 20 19 18 17 17 17 17 16 15 14 13 13 12 11 11 10 10 9 8 7 6 6 5
14 16 16 21 23 23 22 23 24 24 25 24 24 24 23 25 23 21 20 20 18 17 16 16 17 17 16 16 15 14 13 12 11 11 10 9 9 8 7 7 6 6 5 5
15 17 18 19 22 22 22 22 24 24 24 24 24 25 23 22 21 19 18 16 16 17 16 16 16 16 15 14 14 13 12 11 11 10 9 8 8 7 7 6 6 5 5 5
12 16 16 19 21 24 24 19 24 24 23 22 22 19 18 21 18 17 16 17 16 16 16 16 15 15 14 13 13 11 11 10 10 9 8 7 6 6 6 6 5 5 5 5
11 12 14 20 22 24 20 19 23 23 23 23 21 18 19 17 17 17 17 16 16 15 14 15 15 14 13 12 11 11 11 10 9 8 7 7 6 6 6 6 6 5 5 3
12 13 14 16 21 21 19 20 22 22 24 22 19 18 18 17 17 16 15 15 15 14 14 15 14 13 11 11 11 10 9 8 7 7 6 6 6 6 5 5 4 4 3 1
13 13 15 16 17 15 18 19 21 24 23 21 18 18 17 16 16 15 15 14 14 13 13 13 13 12 10 8 9 8 7 6 6 6 6 6 5 5 4 4 3 3 1 -1
14 15 15 16 16 17 16 17 19 22 22 18 18 17 15 15 15 14 13 13 13 12 11 11 12 11 9 8 8 7 6 6 6 6 5 4 4 4 3 2 2 2 0 -2
14 15 16 17 16 16 15 16 17 18 20 20 16 16 16 15 14 14 13 13 12 11 10 10 10 9 9 8 7 7 6 6 5 5 4 2 2 1 1 -0 1 0 -1 -2
12 15 15 17 17 16 16 15 17 18 17 18 17 16 15 14 13 13 11 12 11 10 8 8 8 8 8 7 7 5 4 4 4 3 2 1 -0 -2 -2 -2 -2 -2 -3 -3
17 18 17 18 18 19 19 18 18 18 19 19 18 15 14 13 12 12 11 10 9 7 7 6 4 5 5 5 5 4 2 2 1 1 0 -0 -1 -3 -5 -5 -5 -4 -5 -5
14 15 16 15 15 15 16 16 15 16 18 19 16 14 13 12 11 10 9 8 7 4 2 1 1 1 2 3 2 1 1 0 -0 -1 -1 -2 -2 -3 -4 -4 -5 -5 -6 -6
11 13 13 14 14 14 14 13 14 14 15 13 12 12 11 10 9 7 6 4 2 0 -1 -1 -2 -1 -0 0 0 -1 -2 -2 -3 -3 -4 -4 -5 -5 -4 -4 -4 -5 -5 -7
10 11 11 11 12 12 11 10 11 10 10 10 7 5 4 2 2 1 0 -1 -2 -3 -4 -4 -3 -3 -2 -2 -2 -3 -4 -5 -6 -6 -6 -6 -6 -6 -6 -6 -6 -6 -7 -8
7 6 7 7 9 4 4 4 3 2 2 0 -0 -1 -1 -3 -4 -4 -5 -5 -6 -7 -7 -6 -7 -4 -4 -4 -5 -6 -7 -7 -7 -7 -7 -7 -8 -8 -8 -8 -8 -8 -8 -9
5 4 4 4 3 2 1 -0 -1 -1 -2 -3 -3 -4 -4 -5 -5 -6 -7 -7 -6 -7 -7 -7 -6 -6 -7 -7 -7 -8 -8 -8 -8 -8 -8 -9 -9 -9 -9 -9 -9 -10 -10 -10
1 1 0 0 -0 -1 -2 -2 -3 -4 -4 -5 -5 -5 -6 -6 -6 -7 -7 -8 -8 -8 -9 -8 -8 -8 -9 -9 -9 -9 -9 -9 -9 -9 -9 -10 -10 -10 -10 -10 -10 -11 -11 -11
-2 -2 -3 -3 -3 -3 -3 -4 -4 -4 -5 -5 -6 -6 -7 -7 -8 -8 -8 -8 -9 -9 -9 -9 -10 -10 -10 -10 -10 -10 -10 -10 -10 -10 -10 -10 -11 -11 -11 -11 -12 -12 -12 -13
-3 -4 -4 -4 -5 -5 -5 -5 -5 -5 -6 -6 -6 -6 -7 -7 -8 -8 -8 -9 -9 -9 -10 -10 -10 -11 -11 -11 -10 -10 -11 -11 -11 -11 -11 -11 -11 -12 -12 -12 -13 -13 -14 -14
-5 -5 -5 -5 -5 -5 -6 -6 -6 -6 -6 -6 -7 -7 -8 -8 -8 -9 -9 -9 -9 -10 -10 -11 -11 -12 -11 -11 -11 -11 -11 -12 -12 -12 -12 -12 -12 -13 -13 -14 -14 -14 -15 -15
-4 -5 -5 -5 -6 -6 -6 -6 -6 -6 -6 -7 -7 -8 -7 -8 -8 -8 -9 -9 -10 -10 -12 -12 -12 -12 -12 -12 -12 -12 -12 -13 -13 -13 -14 -14 -14 -15 -15 -15 -15 -15 -16 -16
-4 -4 -5 -5 -5 -5 -6 -6 -7 -7 -7 -8 -7 -8 -9 -9 -9 -10 -10 -10 -11 -11 -12 -12 -12 -13 -13 -13 -13 -13 -14 -14 -14 -14 -14 -15 -15 -16 -16 -16 -16 -16 -17 -17
-7 -7 -6 -6 -6 -6 -6 -7 -7 -7 -8 -8 -9 -9 -9 -9 -10 -11 -11 -11 -11 -12 -12 -13 -13 -13 -13 -14 -14 -14 -15 -15 -15 -15 -16 -16 -17 -17 -17 -17 -18 -18 -18 -19
-7 -8 -8 -9 -9 -9 -9 -9 -9 -8 -8 -9 -9 -10 -10 -10 -10 -11 -11 -12 -12 -12 -13 -13 -14 -14 -15 -15 -15 -16 -16 -16 -16 -17 -17 -17 -18 -18 -19 -19 -19 -20 -20 -20
-9 -9 -9 -9 -10 -10 -10 -11 -11 -11 -10 -10 -11 -12 -12 -12 -12 -12 -12 -13 -13 -14 -14 -15 -15 -16 -16 -16 -16 -17 -17 -17 -17 -18 -18 -19 -19 -19 -20 -20 -20 -21 -21 -21

GFSNGP_925_temp_042.txt.gz
Temp
16 18 21 21 22 21 21 20 18 20 19 22 21 21 21 21 21 23 21 21 19 19 18 17 18 19 21 20 19 18 16 16 17 17 15 14 13 13 13 13 12 12 11 11
13 17 20 20 22 22 22 21 20 21 20 21 23 21 21 21 22 22 22 21 20 19 18 17 16 16 17 18 17 17 16 15 14 13 13 12 12 12 11 11 10 10 9 9
12 15 18 17 20 22 21 21 22 19 20 22 22 22 20 21 22 22 21 20 19 19 18 17 16 16 15 15 14 13 13 12 12 11 11 11 11 11 10 9 8 8 8 7
11 12 14 19 21 22 21 21 21 21 22 22 23 23 21 20 22 21 20 19 18 18 16 16 16 15 14 14 13 12 11 11 11 10 9 9 9 8 8 8 9 7 6 6
11 12 15 18 20 20 19 20 21 21 22 22 21 22 21 20 22 22 18 18 17 18 15 15 14 13 13 12 12 11 10 9 9 9 8 8 8 8 7 7 6 5 5 5
10 11 13 16 19 21 21 17 20 22 22 21 21 18 17 20 19 17 16 15 13 14 14 13 13 14 12 11 10 9 9 9 9 9 9 8 7 7 7 6 5 5 5 5
11 11 13 15 16 20 18 18 19 22 20 20 18 18 19 16 17 15 16 14 14 14 13 13 13 13 11 10 9 10 10 9 9 9 8 8 7 6 6 5 4 4 3 3
11 11 12 14 16 16 15 15 17 17 20 22 19 18 16 16 15 14 13 12 13 12 11 12 13 13 10 9 9 9 9 9 8 7 7 6 6 5 5 5 3 2 2 -0
12 12 15 14 15 15 15 14 15 15 16 18 18 17 16 15 14 14 14 13 13 12 10 11 11 12 8 7 8 8 8 6 6 6 6 6 5 5 4 4 3 -1 -1 -3
13 15 14 15 15 14 15 15 15 16 16 17 16 16 15 14 14 13 12 11 12 11 9 9 10 9 9 7 7 7 6 5 5 5 4 4 4 4 3 3 1 -1 -3 -5
13 14 15 15 16 15 15 15 16 16 16 16 17 15 14 14 13 13 11 11 11 10 8 7 8 7 7 7 7 6 5 4 3 3 2 1 1 0 1 -0 1 -1 -2 -3
12 14 15 15 16 15 16 16 16 15 15 16 17 16 15 13 12 12 10 9 8 7 7 6 6 6 6 7 7 5 2 1 1 1 -0 -1 -1 -2 -2 -2 -2 -2 -3 -3
10 11 13 14 16 15 16 16 16 16 16 16 15 14 13 11 11 9 9 8 7 4 2 3 3 3 4 5 5 4 1 0 -0 -0 -1 -2 -3 -3 -5 -5 -4 -4 -5 -5
9 11 13 12 12 12 13 13 14 15 14 13 14 13 11 9 8 7 5 3 2 1 -0 -1 -1 -1 1 2 2 1 0 -0 -1 -2 -2 -2 -3 -4 -4 -5 -5 -6 -6 -7
7 8 8 10 9 8 9 10 8 7 7 6 9 9 8 6 3 2 1 -0 -1 -2 -2 -3 -3 -4 -2 -1 -1 -3 -3 -4 -3 -4 -4 -4 -5 -5 -6 -6 -6 -6 -7 -8
7 6 7 6 5 4 5 4 4 2 2 2 1 0 0 -1 -2 -3 -3 -3 -3 -4 -5 -5 -5 -5 -3 -2 -2 -3 -4 -5 -5 -5 -6 -6 -6 -7 -7 -7 -7 -8 -8 -8
5 5 4 4 3 1 1 0 0 -1 -1 -2 -2 -3 -4 -4 -5 -5 -6 -6 -6 -6 -6 -6 -6 -5 -5 -5 -5 -6 -6 -6 -7 -7 -7 -8 -8 -8 -8 -8 -9 -9 -9 -10
2 1 1 1 1 -0 -1 -2 -2 -3 -3 -4 -5 -5 -5 -5 -6 -6 -7 -8 -8 -8 -8 -7 -7 -7 -7 -7 -7 -7 -8 -8 -8 -8 -9 -9 -10 -9 -10 -10 -10 -10 -11 -11
-1 -1 -1 -2 -2 -2 -3 -3 -4 -4 -5 -5 -5 -6 -7 -7 -7 -8 -8 -8 -9 -9 -10 -9 -8 -9 -9 -9 -9 -9 -9 -9 -9 -10 -10 -10 -10 -10 -11 -11 -11 -11 -12 -12
-3 -4 -4 -4 -4 -4 -4 -5 -5 -6 -6 -7 -7 -7 -8 -8 -8 -9 -9 -9 -9 -10 -10 -10 -10 -10 -10 -10 -10 -10 -10 -10 -10 -11 -11 -11 -11 -12 -12 -12 -13 -13 -13 -14
-5 -5 -5 -5 -5 -5 -6 -6 -6 -6 -7 -7 -7 -8 -8 -8 -8 -9 -9 -10 -11 -11 -11 -11 -11 -11 -10 -10 -11 -11 -11 -12 -12 -12 -12 -12 -12 -13 -13 -14 -14 -14 -15 -15
-5 -5 -6 -6 -6 -6 -6 -7 -7 -7 -7 -7 -8 -8 -8 -8 -9 -9 -10 -11 -11 -11 -12 -12 -12 -11 -12 -12 -12 -12 -12 -13 -13 -13 -14 -14 -14 -15 -15 -15 -16 -16 -16 -16
-5 -6 -6 -6 -6 -7 -7 -7 -8 -7 -8 -8 -9 -9 -9 -9 -9 -9 -11 -12 -12 -12 -12 -13 -12 -12 -12 -13 -13 -14 -14 -14 -14 -15 -15 -15 -16 -16 -16 -17 -17 -17 -17 -17
-6 -6 -6 -6 -6 -7 -7 -8 -8 -9 -9 -9 -9 -10 -10 -11 -11 -11 -12 -12 -12 -12 -13 -13 -13 -13 -14 -14 -14 -15 -15 -15 -16 -16 -16 -16 -17 -17 -17 -18 -18 -18 -18 -19
-8 -8 -8 -8 -8 -9 -8 -8 -9 -9 -9 -10 -10 -11 -11 -11 -12 -12 -12 -13 -13 -13 -14 -14 -14 -15 -15 -15 -15 -16 -16 -16 -17 -17 -17 -18 -18 -18 -19 -19 -19 -20 -20 -20
-9 -9 -10 -10 -11 -10 -10 -10 -10 -10 -11 -11 -12 -12 -12 -12 -12 -12 -13 -13 -14 -14 -15 -15 -15 -16 -16 -16 -17 -17 -17 -17 -18 -18 -19 -19 -19 -19 -20 -20 -21 -21 -21 -22
-11 -11 -11 -11 -12 -12 -12 -12 -13 -13 -13 -13 -14 -14 -13 -13 -13 -14 -14 -14 -15 -15 -16 -16 -17 -17 -17 -17 -18 -18 -18 -18 -19 -19 -19 -20 -20 -21 -21 -21 -21 -22 -22 -23

GFSNGP_925_temp_045.txt.gz
Temp
13 14 16 15 17 18 19 20 19 19 18 20 20 20 20 20 20 20 20 19 18 16 16 16 17 18 19 18 18 17 16 15 15 15 15 14 14 14 13 13 12 12 13 12
12 16 15 15 16 17 19 19 18 19 18 19 20 19 20 19 19 20 20 19 19 17 17 16 17 17 17 18 19 18 16 15 15 14 14 14 14 13 13 13 12 12 11 10
11 12 14 14 15 17 19 20 20 19 20 21 20 19 19 20 19 20 20 19 19 17 18 17 17 19 18 18 18 17 16 14 14 14 14 13 12 12 12 10 10 10 9 9
10 11 12 17 15 17 17 20 21 21 21 20 20 20 19 20 21 20 19 19 18 18 16 17 17 16 16 15 15 15 13 13 13 12 12 11 11 10 10 10 9 9 9 8
9 10 13 15 17 17 13 14 17 20 20 21 21 20 19 19 18 19 19 20 19 19 17 15 16 14 14 13 12 12 11 11 11 10 9 9 9 9 9 9 8 8 8 7
10 9 10 16 17 16 15 14 17 16 17 20 20 18 18 19 18 17 16 16 14 14 14 13 12 13 12 10 10 10 10 10 10 10 10 9 9 8 7 8 7 6 5 5
11 11 10 13 15 15 13 13 14 15 15 15 17 20 20 18 16 16 15 13 13 13 12 12 12 12 10 9 9 9 9 9 9 9 10 9 8 7 6 5 4 3 2 2
11 11 11 14 13 14 13 13 14 15 14 13 14 14 16 15 15 13 12 11 12 11 10 11 11 11 9 8 8 8 8 8 8 8 7 7 6 5 4 4 1 -0 -0 -1
10 11 13 14 15 14 14 14 14 14 15 14 13 15 15 14 13 13 12 11 11 10 9 10 10 10 7 6 8 7 7 6 6 6 6 5 5 3 2 1 -1 -2 -3 -4
11 14 14 15 15 14 15 14 15 15 14 14 14 14 15 12 11 10 10 9 10 9 8 7 9 9 8 7 7 6 5 4 4 4 3 3 3 2 2 -0 -1 -2 -4 -5
12 14 14 15 14 14 14 15 14 15 14 14 14 14 14 13 11 10 9 10 9 8 7 5 7 6 6 6 6 4 2 2 2 2 2 1 0 0 0 -0 1 -1 -3 -3
10 10 10 12 14 14 14 15 15 14 15 15 15 15 14 11 10 10 8 8 6 6 5 4 4 4 5 5 5 3 0 -0 -1 -1 -2 -3 -3 -4 -3 -2 -2 -2 -3 -3
8 8 8 10 12 11 12 12 13 13 12 12 13 14 12 10 8 6 5 4 3 2 2 1 1 2 3 4 4 3 -0 -2 -2 -2 -3 -4 -4 -5 -6 -6 -4 -4 -4 -5
6 7 9 9 8 7 7 8 7 6 4 5 9 10 7 5 3 3 2 1 -0 -1 -2 -2 -1 -2 -0 1 1 -1 -2 -3 -3 -3 -3 -3 -3 -4 -5 -5 -6 -7 -7 -7
5 7 6 6 5 4 4 4 3 2 1 1 1 2 2 1 -1 -1 -2 -2 -3 -3 -4 -4 -4 -4 -4 -3 -3 -4 -4 -4 -4 -4 -4 -5 -5 -5 -5 -5 -6 -6 -7 -8
4 6 5 4 3 2 1 1 0 -1 -1 -2 -2 -3 -4 -4 -4 -5 -5 -4 -4 -5 -5 -5 -5 -4 -3 -3 -3 -4 -5 -5 -5 -5 -6 -6 -6 -7 -7 -7 -7 -7 -8 -9
3 4 2 3 2 -0 -1 -1 -1 -2 -3 -3 -3 -4 -4 -5 -6 -6 -7 -7 -7 -7 -7 -7 -7 -5 -5 -5 -5 -6 -6 -7 -7 -7 -8 -8 -8 -8 -8 -9 -9 -9 -10 -10
0 -1 -1 -0 -1 -1 -2 -3 -3 -3 -4 -5 -5 -6 -6 -6 -7 -7 -8 -8 -8 -9 -8 -8 -7 -7 -7 -7 -7 -7 -8 -8 -9 -9 -9 -9 -10 -10 -10 -10 -10 -11 -11 -11
-3 -3 -3 -3 -3 -4 -4 -4 -5 -6 -6 -6 -7 -7 -8 -8 -8 -9 -9 -9 -9 -10 -10 -9 -9 -9 -9 -9 -9 -9 -9 -10 -10 -10 -10 -11 -11 -11 -11 -11 -12 -12 -13 -13
-4 -4 -5 -5 -5 -5 -5 -6 -6 -7 -7 -7 -8 -8 -8 -9 -10 -10 -10 -11 -11 -11 -10 -10 -10 -10 -10 -10 -10 -10 -11 -11 -11 -12 -12 -12 -12 -13 -13 -13 -13 -14 -14 -14
-5 -6 -6 -6 -6 -7 -7 -7 -7 -8 -8 -8 -8 -9 -9 -9 -10 -10 -11 -11 -12 -11 -11 -11 -11 -11 -11 -11 -12 -12 -12 -12 -13 -13 -13 -14 -14 -14 -15 -15 -15 -16 -16 -16
-6 -6 -7 -7 -7 -7 -8 -8 -8 -8 -8 -8 -8 -9 -10 -10 -11 -12 -12 -12 -12 -12 -12 -12 -12 -12 -12 -12 -13 -13 -13 -14 -14 -14 -15 -15 -15 -16 -16 -16 -16 -16 -16 -17
-6 -7 -7 -7 -8 -8 -8 -8 -9 -9 -9 -10 -10 -10 -10 -10 -11 -11 -12 -13 -13 -13 -13 -13 -13 -13 -13 -14 -14 -14 -15 -15 -15 -16 -16 -16 -17 -17 -17 -17 -18 -18 -18 -19
-7 -8 -8 -8 -8 -8 -8 -9 -10 -10 -10 -11 -11 -11 -11 -12 -13 -13 -13 -13 -13 -13 -14 -14 -14 -14 -15 -15 -15 -16 -16 -16 -17 -17 -17 -18 -18 -18 -18 -19 -19 -20 -20 -20
-9 -10 -9 -9 -9 -9 -9 -10 -11 -11 -12 -12 -12 -12 -12 -12 -13 -14 -14 -14 -14 -14 -15 -15 -15 -16 -16 -16 -16 -17 -17 -17 -18 -18 -18 -19 -19 -19 -20 -20 -21 -21 -21 -21
-10 -11 -12 -12 -12 -12 -12 -12 -13 -13 -13 -14 -13 -13 -13 -13 -13 -14 -14 -15 -15 -15 -16 -16 -17 -17 -17 -17 -18 -18 -18 -19 -19 -19 -19 -20 -20 -21 -21 -21 -22 -22 -22 -23
-12 -12 -12 -13 -13 -12 -12 -13 -14 -15 -14 -14 -15 -14 -14 -14 -15 -15 -15 -16 -16 -17 -17 -17 -18 -18 -18 -19 -19 -19 -19 -20 -20 -20 -20 -21 -21 -22 -22 -22 -22 -23 -23 -23

GFSNGP_925_temp_048.txt.gz
Temp
14 14 14 15 15 15 15 15 15 16 17 18 19 19 20 19 19 19 19 18 16 15 15 15 16 16 16 16 15 14 14 13 13 13 13 13 14 14 13 13 13 12 12 12
11 14 14 14 15 15 16 16 15 16 17 18 19 18 17 18 18 18 18 19 18 17 15 14 16 16 16 16 16 15 14 14 14 14 13 13 13 13 13 12 12 12 12 12
12 12 13 12 13 15 16 16 16 15 16 18 19 18 18 19 18 18 18 18 18 17 17 15 15 16 16 16 16 16 15 14 14 14 13 13 13 13 13 12 12 12 12 12
9 10 11 14 15 15 15 15 14 15 15 17 18 20 19 18 19 18 18 18 17 17 15 18 19 17 17 16 16 16 15 14 14 14 13 13 12 12 12 12 11 11 10 10
8 9 12 14 14 15 15 17 15 16 15 15 16 16 18 18 17 18 18 17 18 19 19 19 18 18 16 14 15 14 13 13 13 12 11 11 11 11 10 10 8 8 8 7
9 9 9 13 15 15 15 13 14 13 13 14 14 13 19 19 18 17 16 15 15 16 17 16 16 16 14 12 12 12 12 11 11 12 11 10 9 8 7 7 6 6 5 5
11 10 10 12 13 15 13 12 13 14 13 13 12 14 15 15 15 16 16 16 15 13 13 14 13 13 11 10 11 10 10 10 10 10 10 8 7 6 5 5 4 3 2 2
11 10 10 13 14 13 13 13 13 13 13 13 13 13 13 13 13 13 13 13 12 11 10 10 11 11 9 7 7 9 9 8 7 7 6 6 5 3 3 3 1 0 0 -1
9 10 11 13 13 13 13 12 13 13 13 14 13 13 13 12 11 10 9 9 9 8 7 9 9 9 6 5 7 7 6 5 5 5 4 3 3 2 1 1 -1 -2 -2 -3
10 12 12 12 12 13 13 13 14 14 14 14 13 13 12 11 10 9 8 8 8 8 7 6 8 8 6 6 7 6 4 3 3 3 2 2 2 1 -0 -1 -2 -2 -3 -4
11 12 11 13 12 10 11 13 14 13 14 13 13 13 12 11 9 8 7 7 7 6 5 4 4 5 5 5 7 4 3 2 1 2 2 1 -0 -1 -1 -1 -0 -1 -2 -4
8 7 8 8 9 8 9 9 9 13 13 12 10 10 11 8 7 7 6 5 4 3 3 2 2 2 3 4 5 3 -0 -1 -1 -1 -1 -2 -3 -4 -3 -2 -1 -2 -3 -3
8 6 6 7 8 6 6 6 6 6 5 5 6 7 7 5 3 3 2 2 1 0 -0 -1 -1 -1 1 1 1 0 -2 -2 -3 -3 -4 -4 -5 -5 -6 -6 -5 -5 -5 -6
6 6 7 7 5 4 4 4 4 3 2 1 2 2 1 0 -1 -1 -2 -2 -2 -2 -3 -3 -3 -3 -3 -1 -2 -3 -4 -4 -4 -5 -5 -5 -5 -6 -6 -6 -6 -7 -7 -7
4 4 5 5 3 2 2 2 1 -1 -1 -2 -2 -2 -2 -3 -3 -3 -3 -4 -4 -4 -4 -4 -4 -4 -4 -4 -4 -4 -4 -5 -5 -5 -5 -5 -5 -5 -5 -6 -6 -7 -8 -8
3 3 4 4 1 0 -0 -1 -1 -2 -2 -3 -3 -4 -4 -5 -5 -6 -6 -6 -5 -5 -6 -6 -6 -5 -4 -4 -4 -5 -5 -5 -5 -6 -6 -6 -6 -7 -7 -7 -7 -7 -8 -9
2 2 1 1 0 -1 -2 -2 -2 -3 -3 -3 -4 -5 -5 -5 -6 -7 -7 -8 -8 -8 -8 -8 -8 -7 -6 -6 -6 -7 -7 -7 -7 -8 -8 -8 -8 -8 -9 -9 -9 -10 -10 -11
-1 -2 -2 -2 -2 -2 -3 -4 -4 -5 -5 -6 -7 -7 -8 -8 -8 -9 -9 -9 -9 -9 -9 -9 -8 -8 -7 -7 -8 -8 -9 -9 -9 -9 -10 -10 -10 -10 -10 -11 -11 -11 -12 -12
-4 -4 -4 -4 -4 -4 -5 -5 -6 -7 -7 -8 -8 -9 -9 -10 -10 -10 -10 -10 -10 -10 -10 -10 -9 -9 -9 -9 -9 -9 -10 -10 -11 -11 -11 -11 -12 -12 -12 -12 -13 -13 -14 -14
-5 -5 -6 -6 -6 -6 -7 -7 -7 -8 -8 -9 -9 -9 -10 -10 -11 -11 -11 -11 -11 -11 -11 -11 -11 -11 -11 -11 -10 -11 -11 -12 -12 -12 -13 -13 -13 -14 -14 -14 -15 -15 -15 -15
-6 -7 -7 -7 -8 -8 -8 -8 -8 -9 -9 -10 -10 -11 -11 -11 -11 -11 -11 -12 -12 -12 -12 -12 -12 -12 -12 -12 -12 -12 -13 -13 -13 -14 -14 -15 -15 -15 -16 -16 -16 -16 -16 -17
-7 -7 -7 -8 -8 -8 -9 -9 -9 -9 -9 -10 -10 -11 -11 -12 -12 -13 -13 -13 -13 -13 -13 -13 -13 -13 -13 -13 -13 -14 -14 -14 -15 -15 -16 -16 -16 -17 -17 -17 -17 -18 -18 -18
-7 -7 -8 -8 -9 -9 -10 -10 -10 -11 -11 -11 -12 -12 -12 -12 -12 -13 -13 -14 -14 -14 -14 -14 -14 -14 -15 -15 -15 -15 -16 -16 -16 -17 -17 -17 -18 -18 -18 -19 -19 -19 -20 -20
-8 -8 -8 -9 -9 -9 -10 -11 -11 -11 -12 -12 -12 -13 -13 -14 -14 -15 -14 -14 -14 -15 -15 -15 -15 -16 -16 -16 -16 -17 -17 -17 -18 -18 -18 -19 -19 -19 -20 -20 -20 -21 -21 -21
-10 -10 -10 -10 -9 -10 -11 -11 -12 -13 -13 -14 -14 -14 -14 -14 -14 -15 -15 -15 -15 -15 -16 -16 -17 -17 -17 -17 -17 -18 -18 -18 -19 -19 -19 -19 -20 -20 -21 -21 -21 -22 -22 -22
-11 -12 -12 -12 -12 -13 -13 -13 -14 -14 -14 -15 -15 -14 -14 -15 -15 -15 -15 -16 -16 -17 -17 -17 -18 -18 -18 -18 -18 -19 -19 -19 -20 -20 -20 -21 -21 -21 -22 -22 -22 -22 -22 -23
-13 -13 -13 -14 -14 -13 -13 -14 -14 -15 -14 -14 -16 -16 -15 -15 -16 -16 -16 -17 -17 -18 -18 -18 -19 -19 -19 -19 -19 -20 -20 -20 -20 -21 -21 -21 -22 -22 -22 -22 -22 -23 -23 -23

GFSNGP_925_temp_051.txt.gz
Temp
16 16 15 16 16 16 16 16 16 18 18 19 20 21 21 22 22 22 22 22 20 20 19 18 17 16 16 16 14 13 13 13 13 13 12 12 12 12 12 12 13 13 13 12
13 14 15 14 15 16 16 17 17 17 17 19 20 20 19 20 21 21 22 22 21 19 19 18 17 17 17 16 15 14 14 14 14 13 13 12 13 13 13 13 12 12 12 13
13 12 14 14 14 16 17 18 18 17 19 18 18 19 20 20 21 21 21 21 21 21 19 18 17 17 17 17 16 14 14 14 14 14 13 13 13 13 13 13 13 12 12 12
11 11 12 16 15 16 16 17 18 17 17 17 17 17 17 18 20 20 21 20 20 21 20 20 19 17 18 17 16 15 15 15 14 14 14 14 13 13 13 13 12 12 12 12
11 12 14 15 16 16 15 17 16 15 16 16 16 15 18 18 18 18 18 19 20 21 20 20 18 19 17 16 15 15 15 15 14 14 14 13 13 12 12 12 12 11 10 10
10 12 11 14 15 15 16 15 16 15 16 16 15 15 17 17 16 15 16 16 17 19 17 17 18 16 15 15 14 15 15 14 13 12 11 12 12 11 10 9 8 7 6 6
11 11 12 14 15 15 15 16 16 15 16 15 15 15 15 15 15 15 15 15 15 16 16 16 14 14 14 14 14 11 11 11 11 11 11 11 9 8 7 6 4 3 3 2
11 10 11 13 14 14 16 15 15 15 15 15 15 14 15 15 15 14 13 12 13 14 13 10 11 12 12 10 8 10 10 9 9 9 8 7 7 4 3 2 1 -0 -0 -1
12 13 13 13 14 15 13 13 14 14 15 15 14 14 14 14 14 12 11 11 9 10 9 9 9 9 7 6 8 7 6 5 5 4 4 3 3 1 1 1 -0 -2 -3 -4
11 13 14 14 13 10 11 11 11 13 14 14 14 13 12 12 12 10 10 9 8 8 7 6 6 7 6 6 6 5 3 2 2 1 1 1 1 1 0 -0 -1 -2 -3 -4
12 13 12 13 10 8 9 9 9 10 11 8 8 8 9 9 8 7 7 6 5 5 4 4 4 4 4 4 4 2 1 0 -0 -1 -1 -1 -1 -1 -1 -1 -0 -1 -3 -3
12 8 7 9 10 7 7 7 7 6 7 5 5 5 5 3 3 2 3 3 3 2 2 1 0 0 1 1 1 1 1 -0 -1 -2 -2 -3 -4 -5 -4 -2 -2 -2 -3 -3
8 7 7 7 8 5 5 5 5 4 3 2 3 2 2 1 -0 -1 -1 -1 -1 -2 -2 -2 -1 -2 -1 -0 -1 -1 -1 -2 -3 -3 -3 -4 -4 -5 -5 -6 -6 -5 -5 -6
5 5 8 6 5 4 3 3 2 1 -0 -1 0 -0 -1 -1 -2 -2 -2 -3 -3 -3 -3 -4 -4 -4 -4 -3 -3 -4 -4 -4 -4 -5 -5 -5 -5 -5 -5 -5 -5 -6 -7 -7
3 4 3 4 3 2 2 2 1 -0 -1 -2 -3 -3 -3 -3 -4 -4 -4 -4 -5 -5 -5 -5 -5 -5 -4 -4 -4 -4 -4 -5 -5 -5 -5 -5 -5 -5 -5 -6 -6 -7 -8 -8
2 3 3 2 1 -0 -0 -0 -0 -2 -2 -2 -3 -4 -5 -6 -6 -6 -7 -7 -6 -6 -7 -7 -7 -6 -6 -5 -6 -6 -6 -6 -6 -6 -6 -6 -6 -6 -6 -6 -7 -8 -8 -9
1 2 0 0 -1 -2 -2 -2 -2 -3 -4 -4 -5 -6 -7 -7 -8 -8 -8 -9 -9 -9 -9 -8 -8 -7 -7 -7 -7 -8 -8 -8 -8 -8 -8 -8 -8 -8 -9 -9 -9 -10 -11 -11
-2 -3 -3 -2 -3 -3 -4 -5 -5 -6 -6 -7 -8 -8 -8 -9 -9 -9 -9 -9 -9 -10 -10 -9 -9 -8 -8 -8 -8 -8 -9 -9 -9 -10 -10 -9 -9 -10 -10 -10 -10 -11 -12 -13
-4 -4 -4 -4 -5 -5 -5 -6 -7 -8 -8 -9 -9 -10 -10 -10 -10 -10 -10 -10 -10 -10 -11 -11 -10 -10 -10 -10 -10 -10 -10 -10 -10 -11 -11 -11 -11 -12 -12 -12 -13 -13 -14 -14
-6 -6 -6 -7 -7 -7 -7 -8 -8 -9 -9 -10 -10 -10 -10 -11 -11 -11 -11 -12 -12 -12 -12 -12 -11 -12 -12 -11 -12 -12 -12 -12 -12 -13 -13 -13 -14 -14 -14 -15 -15 -15 -16 -16
-6 -7 -7 -8 -8 -9 -9 -9 -9 -10 -11 -11 -11 -12 -12 -12 -12 -11 -12 -12 -13 -13 -13 -13 -13 -13 -13 -13 -13 -14 -14 -14 -15 -15 -15 -15 -16 -16 -17 -17 -17 -17 -18 -18
-8 -8 -8 -9 -9 -9 -10 -10 -10 -10 -10 -11 -11 -11 -12 -12 -13 -14 -14 -14 -15 -14 -15 -15 -14 -14 -14 -14 -15 -15 -16 -16 -16 -16 -17 -17 -17 -18 -18 -19 -19 -19 -19 -20
-8 -8 -9 -9 -10 -10 -10 -11 -11 -11 -12 -12 -13 -13 -13 -13 -13 -13 -14 -15 -15 -15 -16 -15 -15 -15 -15 -15 -16 -16 -17 -17 -18 -18 -18 -18 -19 -19 -20 -20 -20 -21 -21 -21
-8 -9 -9 -9 -10 -10 -10 -11 -11 -12 -12 -13 -13 -14 -13 -14 -15 -15 -16 -16 -15 -16 -16 -16 -16 -16 -17 -17 -17 -17 -18 -18 -18 -19 -19 -19 -19 -20 -21 -21 -21 -21 -21 -21
-10 -10 -10 -10 -10 -10 -11 -12 -12 -13 -13 -14 -14 -15 -15 -15 -15 -17 -16 -16 -16 -16 -17 -17 -17 -17 -18 -18 -18 -18 -19 -19 -19 -19 -20 -20 -20 -21 -21 -21 -22 -22 -22 -22
-11 -11 -12 -12 -12 -12 -13 -13 -13 -14 -14 -15 -16 -16 -15 -16 -16 -16 -16 -17 -17 -18 -18 -18 -18 -18 -19 -19 -19 -19 -20 -20 -20 -20 -21 -21 -21 -22 -22 -22 -22 -22 -23 -23
-13 -13 -13 -13 -14 -14 -14 -15 -15 -16 -16 -16 -17 -17 -16 -16 -17 -17 -17 -18 -18 -18 -19 -19 -19 -19 -20 -20 -20 -20 -20 -21 -21 -21 -22 -22 -22 -22 -23 -23 -23 -23 -23 -23

GFSNGP_925_temp_054.txt.gz
Temp
18 18 18 19 19 19 19 19 19 21 21 22 23 24 24 24 24 25 26 26 27 27 27 26 24 22 21 20 19 18 18 17 17 16 16 15 15 15 15 14 14 15 15 15
16 18 17 17 19 19 20 20 20 21 21 23 23 24 23 23 24 24 25 26 26 27 26 25 24 23 22 21 20 18 18 18 18 17 16 16 16 15 15 15 15 15 15 15
16 16 17 16 18 19 20 21 21 20 22 22 22 22 22 22 22 22 22 23 24 25 25 25 24 21 21 21 21 19 18 18 18 17 17 16 16 16 16 15 15 15 15 15
15 14 14 19 19 18 19 20 21 21 20 20 20 20 20 21 21 20 19 19 21 22 23 25 25 23 22 23 21 20 19 19 18 18 17 17 16 16 16 15 15 15 15 14
14 15 17 18 19 19 18 20 19 19 20 20 20 20 21 21 20 19 18 19 19 20 21 22 23 23 21 22 22 21 20 19 19 18 17 17 17 16 16 15 14 13 13 12
13 13 14 18 18 18 18 18 19 19 19 19 19 18 20 19 19 19 19 18 18 17 18 20 22 22 21 20 21 21 20 20 19 18 18 17 16 15 11 11 11 9 8 8
13 13 15 18 18 18 16 17 18 18 18 18 18 18 18 18 18 19 17 16 15 15 16 18 19 19 20 20 20 20 19 18 18 17 16 13 9 10 9 8 6 5 4 3
13 12 12 18 17 16 16 17 17 18 18 17 18 17 17 17 17 17 16 15 14 14 14 14 14 16 18 19 13 12 11 10 10 9 9 8 8 6 6 4 2 -0 -1 -2
15 15 16 17 17 16 15 15 15 15 15 16 17 17 15 15 14 14 14 13 11 10 9 8 9 12 14 9 8 7 6 5 5 5 4 3 3 1 1 1 -1 -2 -3 -4
15 16 17 17 16 13 13 13 13 14 14 14 14 15 14 14 11 11 8 9 7 5 5 4 4 4 6 6 5 4 3 2 2 2 1 1 1 1 -0 -1 -1 -2 -3 -4
15 16 17 17 14 12 11 12 11 12 11 11 10 12 10 10 7 6 2 2 3 2 2 2 2 2 2 2 2 1 1 -0 -1 -1 -2 -2 -2 -2 -1 -1 -1 -2 -4 -4
14 13 12 13 13 10 10 10 10 9 9 9 8 8 7 6 4 1 0 -1 -0 -1 -1 -1 -2 -1 -0 1 1 0 -0 -1 -2 -2 -3 -3 -4 -5 -4 -3 -2 -3 -4 -4
11 10 10 11 11 8 8 8 7 6 6 5 6 5 4 2 0 -1 -2 -2 -2 -2 -3 -3 -3 -3 -3 -2 -1 -2 -2 -2 -3 -3 -3 -4 -4 -4 -5 -6 -6 -6 -6 -6
7 5 9 6 7 5 5 5 4 5 3 2 3 2 1 -0 -2 -2 -4 -4 -5 -5 -5 -4 -5 -5 -4 -3 -3 -3 -4 -4 -4 -4 -4 -4 -5 -5 -5 -5 -5 -6 -6 -7
4 5 4 4 3 2 3 3 4 2 2 1 -1 -1 -2 -3 -4 -5 -5 -5 -6 -6 -6 -6 -6 -5 -5 -5 -5 -4 -4 -4 -4 -4 -4 -4 -4 -5 -5 -6 -6 -7 -8 -8
4 5 4 3 1 -0 0 -0 1 -1 -1 -2 -3 -4 -6 -6 -6 -7 -7 -7 -7 -7 -8 -8 -7 -7 -6 -6 -5 -6 -6 -6 -6 -6 -6 -5 -5 -5 -6 -6 -7 -7 -8 -8
2 4 2 2 1 -1 -2 -3 -3 -4 -4 -5 -5 -6 -6 -6 -7 -7 -8 -9 -9 -8 -8 -8 -8 -7 -7 -6 -6 -6 -7 -7 -7 -7 -6 -6 -6 -6 -7 -7 -8 -9 -10 -11
-1 -1 -1 -1 -1 -2 -3 -4 -5 -6 -6 -7 -8 -8 -8 -8 -8 -8 -9 -9 -9 -10 -10 -9 -9 -9 -8 -7 -7 -7 -7 -7 -7 -7 -7 -7 -7 -8 -8 -8 -9 -9 -11 -12
-3 -3 -3 -3 -4 -4 -5 -6 -7 -8 -8 -8 -9 -9 -9 -10 -10 -10 -10 -10 -10 -9 -10 -10 -10 -10 -9 -9 -8 -8 -8 -8 -8 -9 -9 -9 -9 -10 -10 -10 -10 -11 -11 -12
-5 -6 -6 -6 -6 -7 -7 -8 -8 -9 -9 -9 -9 -9 -9 -10 -10 -11 -11 -12 -12 -12 -12 -11 -11 -11 -11 -11 -10 -10 -10 -10 -10 -11 -10 -10 -11 -11 -12 -13 -12 -12 -13 -13
-6 -7 -7 -8 -8 -8 -9 -9 -9 -10 -10 -10 -10 -11 -11 -12 -12 -11 -11 -11 -13 -13 -13 -13 -13 -12 -12 -11 -11 -11 -11 -12 -12 -12 -12 -12 -13 -13 -13 -13 -14 -14 -14 -15
-7 -8 -8 -8 -9 -9 -9 -10 -10 -10 -10 -11 -11 -11 -11 -12 -12 -13 -14 -13 -14 -14 -14 -14 -15 -15 -14 -13 -13 -13 -13 -13 -13 -14 -14 -14 -14 -14 -15 -15 -15 -16 -16 -16
-8 -8 -9 -9 -9 -9 -10 -11 -11 -11 -11 -11 -12 -12 -11 -11 -11 -11 -12 -14 -14 -15 -15 -16 -16 -17 -16 -15 -15 -15 -15 -15 -15 -16 -16 -16 -16 -16 -16 -17 -17 -17 -18 -18
-8 -8 -8 -9 -9 -9 -9 -9 -10 -11 -12 -12 -13 -12 -11 -12 -13 -13 -15 -16 -17 -17 -17 -18 -17 -17 -16 -16 -16 -16 -16 -16 -16 -17 -17 -18 -17 -18 -18 -19 -19 -18 -19 -20
-8 -8 -8 -8 -8 -8 -9 -10 -11 -11 -12 -12 -12 -13 -13 -13 -14 -15 -15 -17 -17 -16 -17 -18 -18 -18 -17 -17 -17 -17 -17 -18 -18 -18 -18 -18 -19 -19 -19 -19 -20 -20 -21 -21
-8 -9 -10 -10 -9 -9 -10 -10 -10 -11 -11 -12 -13 -14 -15 -15 -15 -16 -17 -17 -17 -18 -18 -18 -19 -18 -18 -18 -18 -18 -18 -18 -18 -19 -19 -19 -20 -20 -20 -21 -21 -22 -22 -23
-10 -9 -10 -10 -11 -12 -12 -11 -11 -12 -13 -13 -14 -15 -15 -15 -16 -16 -17 -17 -17 -18 -18 -18 -18 -19 -19 -18 -19 -19 -19 -19 -20 -20 -20 -20 -21 -21 -22 -23 -23 -23 -24 -24

GFSNGP_925_temp_060.txt.gz
Temp
18 19 19 20 19 21 20 18 17 20 22 21 20 21 25 26 25 24 24 24 23 22 22 23 23 23 25 25 23 21 20 21 20 19 17 17 16 16 16 16 16 16 17 17
15 18 20 20 20 17 17 23 22 21 18 22 23 26 24 24 24 23 23 21 21 21 22 21 21 21 21 23 25 23 21 21 21 20 19 18 18 17 17 17 16 17 17 17
14 16 18 17 19 19 18 23 23 21 23 23 24 24 23 23 23 21 21 21 20 20 20 20 19 19 20 20 22 24 23 22 21 21 20 19 18 18 17 17 17 17 16 16
12 13 14 19 22 22 21 22 23 23 23 23 23 23 23 22 20 20 20 20 19 19 18 18 18 16 16 18 19 22 24 24 22 21 21 21 19 18 18 17 17 17 16 16
12 14 15 18 20 20 20 21 23 22 23 22 22 21 21 21 20 20 19 19 18 17 16 15 13 11 11 13 16 17 19 23 24 23 22 21 20 19 18 18 17 17 16 16
14 13 13 19 20 21 21 19 22 21 20 20 20 18 17 20 20 19 19 17 16 15 14 12 8 7 8 10 11 13 12 16 17 24 22 21 21 20 19 18 17 17 15 13
13 13 16 20 21 20 18 16 18 19 18 18 17 18 19 20 19 19 17 15 13 12 11 8 5 4 6 6 7 6 7 11 11 13 19 22 21 20 19 18 14 9 8 6
13 13 14 20 20 18 15 15 16 16 17 16 17 18 18 17 17 16 14 13 10 9 8 6 3 3 3 3 2 3 5 8 7 8 8 12 14 13 10 7 5 2 1 -0
15 15 18 19 17 17 17 15 14 15 16 16 16 16 16 15 14 12 10 8 6 5 5 3 2 1 1 1 1 2 2 2 2 2 4 4 5 4 3 3 1 -1 -2 -3
14 16 18 16 16 16 16 15 15 15 14 14 13 14 13 12 9 7 5 3 2 1 1 0 -1 -1 -1 -1 -0 -0 -1 -1 -2 -2 -2 -0 0 0 0 -0 -1 -2 -3 -4
15 14 12 11 12 14 14 13 12 13 12 11 11 11 9 6 5 3 1 -0 -1 -1 -1 -2 -2 -3 -2 -2 -1 -2 -2 -3 -3 -3 -4 -4 -4 -3 -3 -3 -2 -3 -4 -4
12 12 11 10 12 13 11 11 10 10 9 9 8 7 6 3 1 -0 -1 -2 -3 -4 -4 -4 -4 -4 -3 -3 -3 -3 -3 -3 -4 -4 -4 -4 -4 -4 -5 -5 -5 -5 -5 -5
11 11 12 11 10 9 9 9 9 8 6 5 4 4 2 0 -1 -2 -3 -4 -5 -5 -5 -5 -4 -4 -4 -4 -3 -3 -3 -3 -4 -4 -5 -5 -5 -5 -5 -6 -6 -6 -6 -6
10 10 12 9 7 6 7 7 7 4 2 1 1 -0 -1 -2 -3 -4 -5 -5 -5 -6 -6 -5 -5 -5 -5 -4 -4 -4 -4 -4 -4 -5 -5 -6 -6 -6 -6 -6 -7 -7 -7 -6
8 9 7 7 6 6 6 5 3 2 1 -1 -2 -3 -4 -4 -5 -6 -6 -6 -6 -7 -7 -7 -6 -5 -5 -5 -5 -5 -5 -5 -5 -5 -5 -6 -6 -6 -7 -7 -7 -7 -8 -8
6 8 7 5 5 4 3 3 2 0 -1 -2 -3 -4 -5 -5 -6 -7 -8 -8 -8 -8 -8 -8 -8 -7 -6 -6 -6 -6 -6 -6 -5 -5 -6 -7 -7 -8 -8 -8 -8 -8 -8 -8
3 3 3 3 3 1 -0 -1 -1 -2 -3 -3 -4 -5 -5 -6 -6 -7 -8 -9 -9 -9 -9 -9 -9 -8 -7 -6 -6 -7 -7 -7 -7 -7 -7 -7 -8 -8 -9 -9 -9 -9 -9 -10
-0 -1 -1 -1 -1 -1 -3 -3 -4 -5 -6 -7 -7 -8 -8 -9 -9 -9 -9 -10 -10 -11 -10 -10 -9 -9 -8 -8 -8 -7 -7 -8 -8 -8 -8 -8 -8 -8 -9 -9 -9 -10 -10 -11
-2 -2 -3 -3 -3 -4 -4 -5 -6 -7 -7 -8 -8 -8 -9 -10 -10 -11 -11 -11 -11 -12 -12 -10 -10 -9 -9 -8 -8 -8 -8 -9 -9 -8 -9 -10 -10 -10 -9 -10 -10 -11 -11 -12
-4 -5 -5 -6 -6 -6 -7 -7 -8 -8 -9 -9 -9 -10 -11 -11 -10 -11 -12 -12 -12 -12 -12 -12 -10 -10 -10 -10 -9 -10 -10 -9 -9 -10 -10 -10 -10 -10 -11 -11 -11 -12 -12 -12
-6 -6 -7 -7 -8 -8 -8 -9 -9 -9 -10 -10 -10 -11 -11 -12 -12 -10 -10 -11 -13 -13 -13 -13 -13 -11 -11 -11 -11 -11 -11 -11 -11 -11 -11 -11 -11 -12 -12 -12 -13 -13 -13 -14
-7 -7 -8 -8 -8 -8 -9 -9 -9 -10 -10 -10 -10 -9 -9 -11 -12 -13 -13 -12 -13 -13 -14 -14 -14 -13 -12 -12 -12 -12 -12 -13 -13 -13 -13 -13 -13 -13 -14 -14 -14 -14 -15 -15
-7 -7 -8 -8 -8 -9 -9 -10 -10 -10 -10 -10 -10 -10 -10 -11 -11 -12 -13 -14 -15 -15 -15 -15 -15 -14 -13 -13 -13 -13 -13 -13 -14 -14 -14 -14 -14 -15 -15 -16 -15 -15 -16 -16
-6 -6 -7 -7 -7 -7 -7 -8 -9 -10 -10 -11 -11 -11 -10 -10 -12 -13 -14 -14 -15 -15 -16 -16 -15 -14 -14 -14 -14 -14 -15 -15 -15 -15 -15 -15 -15 -15 -16 -16 -16 -17 -17 -17
-6 -6 -6 -5 -6 -7 -7 -8 -8 -8 -9 -9 -10 -11 -11 -12 -13 -14 -14 -14 -14 -14 -15 -16 -15 -15 -15 -15 -15 -15 -15 -16 -16 -16 -16 -16 -16 -16 -17 -17 -18 -18 -18 -19
-5 -6 -7 -7 -6 -6 -6 -6 -6 -8 -8 -10 -11 -11 -12 -12 -13 -13 -14 -14 -14 -14 -14 -15 -16 -16 -16 -16 -16 -16 -16 -16 -17 -17 -17 -17 -17 -17 -18 -19 -19 -19 -19 -20
-6 -6 -6 -7 -8 -9 -9 -9 -8 -9 -10 -10 -11 -11 -12 -12 -13 -13 -13 -14 -14 -14 -15 -15 -15 -16 -16 -17 -16 -16 -16 -17 -17 -18 -18 -18 -18 -18 -19 -20 -20 -21 -21 -21

GFSNGP_925_temp_063.txt.gz
Temp
13 15 16 14 15 18 17 17 15 17 16 18 16 16 20 21 21 19 19 19 19 18 17 18 18 18 18 18 19 18 18 16 14 14 13 13 13 13 13 13 13 14 14 14
13 16 16 17 16 19 16 17 18 17 15 16 15 15 17 21 19 19 18 18 18 17 17 16 14 13 13 13 14 16 19 18 18 15 14 14 13 13 13 13 13 14 14 15
12 13 14 14 18 16 15 15 16 14 18 17 16 17 19 17 18 18 17 16 16 15 14 13 10 9 9 10 12 13 15 17 18 19 17 15 15 14 14 14 14 14 14 14
10 13 12 16 17 18 17 16 18 21 19 21 19 18 17 17 17 16 15 14 14 13 11 9 7 7 7 8 9 10 9 10 11 12 15 18 17 16 16 15 15 15 15 15
10 12 14 15 17 19 19 19 20 20 20 19 18 17 17 18 17 14 13 12 12 11 8 6 5 4 5 6 6 6 6 6 8 10 9 11 15 17 17 16 16 16 15 15
9 11 12 14 17 19 20 15 16 16 16 16 16 14 15 16 14 13 11 10 9 8 6 4 3 3 4 4 4 3 4 4 5 7 6 7 8 11 17 17 16 16 15 15
10 10 12 16 18 19 16 13 14 15 14 14 14 14 14 12 11 9 7 6 5 5 4 2 1 2 2 2 2 1 2 3 3 3 3 4 5 8 14 16 16 14 11 8
9 9 11 17 15 15 12 13 14 14 13 13 13 13 11 9 7 5 4 3 2 2 1 -0 -1 -1 -0 -0 -0 1 1 0 -0 -1 -0 1 2 4 6 6 6 4 3 2
11 11 13 14 14 13 13 13 13 12 12 12 12 10 8 6 5 3 1 1 1 1 -0 -1 -2 -2 -2 -2 -1 -1 -1 -2 -3 -3 -3 -1 -1 -0 1 2 1 0 -1 -2
12 11 11 10 11 13 12 12 11 11 11 11 9 8 5 4 3 1 0 -0 -1 -1 -2 -3 -3 -3 -3 -3 -2 -2 -3 -3 -4 -4 -4 -4 -3 -3 -3 -1 -1 -2 -2 -3
11 10 9 8 8 9 10 11 10 9 8 8 7 4 3 2 1 -0 -2 -2 -3 -3 -3 -3 -4 -4 -4 -3 -3 -3 -4 -4 -4 -4 -4 -4 -5 -4 -4 -4 -3 -3 -4 -4
9 8 8 7 8 8 7 8 7 7 4 4 4 3 1 -0 -2 -3 -4 -4 -4 -5 -4 -4 -4 -4 -4 -4 -4 -3 -4 -4 -5 -5 -5 -5 -5 -5 -5 -5 -5 -4 -4 -4
5 7 6 6 6 7 8 5 4 3 3 1 1 0 -1 -2 -3 -4 -5 -5 -6 -6 -6 -5 -5 -5 -5 -5 -4 -5 -5 -5 -6 -6 -6 -6 -6 -6 -6 -6 -6 -5 -5 -5
8 8 6 6 5 5 5 4 1 0 -1 -1 -2 -3 -4 -4 -5 -5 -6 -7 -7 -7 -7 -7 -6 -6 -5 -5 -5 -5 -5 -5 -6 -6 -6 -7 -7 -7 -7 -7 -8 -8 -8 -7
6 6 5 5 3 3 3 2 -0 -1 -3 -4 -4 -5 -5 -6 -7 -7 -8 -8 -8 -9 -9 -8 -8 -7 -6 -6 -6 -6 -6 -6 -6 -7 -7 -8 -8 -8 -8 -8 -8 -8 -9 -9
4 3 3 2 1 0 -0 -1 -2 -3 -3 -4 -5 -6 -7 -8 -8 -9 -9 -9 -9 -9 -9 -9 -9 -8 -7 -7 -7 -7 -7 -7 -7 -7 -8 -8 -9 -9 -9 -9 -9 -9 -10 -10
1 -0 0 -0 -2 -3 -3 -3 -4 -5 -6 -6 -6 -7 -7 -8 -9 -10 -10 -11 -11 -11 -10 -10 -9 -8 -8 -7 -8 -8 -8 -8 -8 -8 -8 -8 -9 -9 -10 -10 -10 -11 -11 -11
-2 -2 -3 -3 -3 -4 -5 -6 -6 -7 -7 -9 -9 -10 -10 -11 -11 -11 -11 -12 -12 -11 -11 -10 -9 -9 -9 -9 -9 -8 -9 -9 -9 -10 -9 -9 -9 -10 -10 -11 -11 -12 -12 -13
-4 -4 -5 -5 -5 -6 -6 -7 -8 -8 -9 -9 -10 -11 -11 -11 -12 -12 -12 -12 -12 -13 -12 -11 -10 -10 -10 -10 -9 -10 -10 -10 -10 -10 -11 -11 -11 -11 -12 -12 -12 -13 -13 -13
-6 -7 -7 -8 -8 -8 -9 -10 -10 -10 -10 -10 -10 -11 -12 -11 -12 -12 -13 -13 -13 -13 -13 -12 -12 -11 -11 -11 -11 -11 -11 -11 -11 -11 -11 -12 -12 -12 -13 -13 -13 -13 -14 -14
-8 -8 -9 -9 -9 -10 -10 -10 -10 -10 -10 -10 -11 -12 -12 -12 -12 -12 -13 -14 -14 -14 -14 -13 -13 -12 -12 -12 -12 -12 -12 -13 -13 -13 -13 -13 -13 -14 -14 -14 -14 -15 -15 -15
-9 -9 -9 -9 -10 -10 -10 -10 -10 -10 -10 -10 -10 -11 -12 -13 -13 -14 -14 -15 -15 -15 -14 -14 -14 -13 -13 -13 -13 -13 -13 -13 -14 -14 -14 -14 -14 -15 -15 -16 -15 -16 -16 -17
-8 -8 -9 -9 -10 -10 -10 -10 -10 -10 -11 -11 -11 -11 -12 -12 -13 -14 -15 -15 -15 -15 -15 -15 -14 -14 -14 -14 -14 -14 -15 -15 -15 -15 -15 -15 -16 -16 -16 -17 -17 -17 -17 -18
-8 -8 -9 -9 -9 -9 -10 -10 -10 -10 -10 -11 -11 -12 -12 -13 -14 -14 -14 -15 -15 -15 -15 -15 -15 -15 -15 -15 -15 -16 -15 -16 -16 -16 -16 -16 -16 -17 -17 -17 -18 -18 -18 -19
-7 -7 -7 -7 -7 -8 -8 -9 -9 -9 -10 -11 -11 -12 -13 -13 -13 -14 -14 -14 -14 -15 -15 -15 -15 -16 -16 -16 -16 -16 -16 -16 -17 -17 -17 -17 -17 -18 -18 -18 -19 -19 -19 -20
-7 -7 -7 -8 -9 -9 -8 -8 -9 -10 -11 -12 -12 -12 -12 -13 -13 -14 -14 -14 -14 -15 -15 -15 -15 -16 -16 -16 -16 -17 -17 -17 -17 -18 -18 -18 -18 -19 -19 -19 -20 -20 -20 -21
-7 -7 -8 -8 -9 -9 -10 -10 -11 -12 -11 -12 -12 -13 -13 -13 -14 -14 -14 -14 -15 -15 -15 -15 -16 -16 -16 -16 -17 -17 -17 -17 -18 -18 -19 -19 -19 -19 -20 -20 -20 -21 -21 -21

GFSNGP_925_temp_066.txt.gz
Temp
13 14 15 16 13 14 15 14 15 16 17 17 15 14 15 16 17 17 16 16 15 14 12 12 11 10 10 10 11 13 15 13 13 12 12 12 12 13 13 13 13 13 13 12
11 14 15 14 15 14 12 14 16 16 16 16 14 13 15 16 17 15 15 14 14 12 11 9 8 8 8 8 9 10 10 10 13 13 13 13 12 12 12 13 13 13 13 13
11 13 13 13 15 16 16 15 15 14 16 15 14 13 14 16 15 14 13 13 12 10 8 7 6 6 6 6 7 7 7 7 7 9 10 12 12 12 12 12 13 13 13 13
9 11 11 15 16 17 16 15 15 15 14 15 15 13 14 15 13 12 11 10 9 7 5 4 4 4 4 4 4 4 4 5 5 6 8 7 8 10 13 13 12 13 13 12
9 10 13 15 16 16 15 13 15 13 14 15 16 13 12 11 10 10 9 8 6 4 3 2 2 2 3 3 2 2 3 3 4 4 4 4 5 6 7 9 12 13 13 13
8 10 10 14 16 17 17 12 15 16 14 16 15 10 9 9 7 6 6 5 4 2 1 0 0 1 1 1 1 1 2 2 2 1 1 2 2 3 5 5 6 11 14 13
8 8 10 14 16 16 14 12 13 14 13 13 11 10 8 6 5 4 3 3 2 1 -0 -1 -1 -0 -0 -0 -0 0 0 -0 -1 -1 -1 -0 -1 1 2 3 4 7 10 8
8 8 10 13 15 14 13 12 12 12 12 9 8 7 6 4 3 2 1 1 1 -0 -2 -2 -2 -1 -1 -1 -1 -1 -1 -2 -3 -3 -3 -3 -2 -2 -0 1 1 1 -0 -2
9 9 9 10 11 11 12 11 11 11 10 9 7 6 4 3 2 1 -0 -1 -1 -2 -3 -3 -3 -3 -2 -2 -2 -3 -3 -4 -4 -4 -4 -4 -4 -3 -2 -1 -1 -2 -2 -3
10 9 8 8 9 10 10 8 8 9 8 7 6 4 3 2 0 -1 -2 -3 -3 -3 -3 -4 -4 -4 -4 -3 -4 -4 -4 -5 -5 -5 -5 -5 -4 -4 -4 -3 -3 -3 -3 -4
9 9 8 7 7 7 8 7 6 5 5 4 3 1 0 -1 -2 -3 -4 -4 -4 -4 -4 -5 -5 -5 -4 -4 -4 -4 -5 -5 -5 -6 -5 -5 -6 -5 -4 -4 -4 -4 -4 -4
8 7 6 6 7 6 5 4 4 3 2 1 1 -0 -2 -2 -3 -5 -5 -6 -6 -6 -5 -6 -6 -6 -6 -5 -5 -6 -6 -6 -7 -7 -7 -6 -6 -6 -7 -6 -6 -5 -5 -5
5 4 3 3 5 5 3 2 1 1 0 -1 -2 -2 -3 -3 -4 -5 -6 -7 -7 -8 -8 -7 -7 -7 -6 -6 -6 -6 -6 -7 -7 -7 -7 -7 -7 -7 -7 -7 -8 -8 -7 -7
5 5 4 4 3 3 2 -0 -1 -3 -3 -3 -4 -4 -5 -5 -6 -7 -8 -8 -9 -9 -8 -8 -7 -7 -6 -6 -6 -6 -7 -7 -8 -8 -8 -8 -8 -8 -8 -8 -9 -9 -10 -9
4 4 2 2 1 1 1 -1 -2 -3 -4 -4 -5 -5 -6 -7 -7 -8 -8 -9 -9 -9 -9 -8 -8 -7 -7 -7 -7 -7 -7 -7 -7 -8 -8 -8 -9 -9 -9 -9 -10 -10 -10 -10
2 3 1 0 -1 -1 -1 -2 -3 -3 -4 -5 -6 -7 -8 -9 -10 -11 -11 -11 -10 -10 -10 -9 -9 -8 -7 -7 -7 -7 -8 -8 -8 -8 -9 -9 -10 -10 -10 -10 -11 -11 -12 -12
1 0 -1 -2 -2 -3 -3 -4 -4 -5 -5 -6 -7 -8 -8 -9 -10 -11 -12 -11 -11 -11 -10 -10 -10 -9 -8 -8 -8 -9 -9 -8 -9 -9 -9 -10 -10 -10 -11 -11 -12 -13 -13 -13
-3 -4 -2 -3 -4 -4 -5 -6 -6 -7 -8 -9 -10 -10 -11 -12 -12 -12 -12 -12 -11 -11 -11 -11 -10 -9 -9 -9 -9 -9 -10 -10 -10 -11 -11 -11 -11 -12 -12 -12 -13 -13 -14 -14
-5 -5 -5 -6 -6 -7 -7 -8 -9 -9 -10 -11 -11 -12 -12 -12 -12 -13 -13 -13 -13 -13 -13 -11 -11 -11 -10 -10 -10 -10 -11 -11 -11 -12 -12 -12 -12 -13 -13 -13 -14 -14 -15 -15
-7 -8 -8 -9 -9 -9 -10 -11 -10 -11 -11 -11 -12 -12 -13 -13 -13 -13 -14 -14 -14 -14 -13 -12 -12 -12 -12 -11 -11 -11 -11 -12 -13 -13 -13 -13 -13 -14 -14 -14 -14 -15 -15 -16
-10 -10 -10 -10 -11 -11 -11 -11 -11 -11 -11 -11 -12 -13 -13 -13 -13 -14 -14 -15 -15 -14 -13 -13 -13 -13 -13 -13 -13 -13 -13 -13 -13 -14 -14 -14 -14 -15 -15 -15 -15 -16 -16 -16
-10 -11 -11 -11 -11 -11 -10 -10 -11 -11 -11 -12 -12 -12 -13 -14 -14 -15 -15 -15 -15 -14 -14 -14 -14 -14 -14 -14 -14 -14 -14 -14 -15 -15 -15 -15 -15 -16 -16 -16 -17 -17 -17 -17
-9 -10 -10 -10 -11 -11 -10 -10 -11 -10 -11 -11 -12 -12 -13 -14 -14 -15 -16 -15 -15 -15 -15 -15 -15 -15 -15 -15 -15 -15 -15 -15 -16 -16 -16 -16 -16 -17 -17 -17 -17 -18 -18 -18
-9 -9 -10 -10 -10 -10 -10 -11 -11 -11 -11 -12 -12 -13 -13 -14 -14 -15 -15 -15 -15 -15 -15 -15 -15 -16 -16 -16 -16 -16 -16 -16 -16 -17 -17 -17 -17 -17 -18 -18 -18 -19 -19 -19
-7 -8 -9 -8 -8 -9 -9 -10 -10 -11 -11 -12 -12 -13 -13 -13 -14 -14 -14 -15 -15 -15 -15 -15 -16 -16 -16 -16 -17 -17 -17 -17 -17 -18 -18 -18 -18 -18 -19 -19 -19 -20 -20 -20
-7 -9 -9 -9 -9 -9 -9 -9 -10 -11 -12 -12 -13 -13 -13 -14 -14 -14 -14 -15 -15 -15 -16 -16 -16 -16 -17 -17 -17 -17 -17 -17 -18 -18 -18 -19 -19 -19 -19 -20 -20 -20 -21 -21
-8 -9 -9 -10 -10 -10 -10 -11 -11 -12 -12 -12 -13 -13 -13 -14 -14 -14 -14 -15 -15 -15 -16 -16 -16 -16 -17 -17 -17 -17 -17 -18 -18 -18 -18 -19 -19 -19 -20 -20 -20 -21 -21 -21

GFSNGP_925_temp_069.txt.gz
Temp
12 12 13 13 13 14 13 13 13 15 15 16 14 14 13 15 15 14 13 12 10 9 8 8 7 7 8 8 8 9 11 10 11 12 12 12 12 12 12 12 12 12 13 13
11 13 12 13 14 15 14 13 13 14 15 16 13 13 13 13 13 13 12 11 9 8 7 6 6 6 6 6 6 6 7 6 7 9 10 11 12 12 12 12 12 12 12 12
10 11 11 11 14 14 15 13 14 13 15 14 13 14 13 11 11 11 10 9 8 7 5 4 4 4 4 4 4 4 4 4 5 5 6 7 8 9 11 12 12 12 12 12
9 10 10 14 15 15 14 15 14 14 14 14 14 12 11 11 10 9 8 7 5 4 4 3 2 3 2 2 2 3 3 3 3 2 3 3 4 5 5 6 8 9 11 12
8 9 11 13 15 14 14 14 14 14 14 14 11 10 7 8 7 6 6 5 3 2 1 1 1 1 1 1 1 2 1 1 0 0 1 2 2 2 2 4 4 5 6 7
7 9 9 13 14 16 14 12 13 14 13 11 13 11 7 5 5 4 4 3 1 0 -0 -1 -1 -0 -0 0 0 0 -1 -1 -2 -2 -1 -1 -1 -0 0 1 2 3 3 3
8 8 9 12 11 14 12 11 11 13 13 11 12 10 6 4 3 2 3 2 1 -1 -2 -2 -1 -1 -1 -1 -1 -2 -2 -3 -3 -4 -3 -3 -2 -2 -1 -0 0 -1 -1 -1
8 9 8 9 11 13 11 10 10 9 8 7 6 6 4 3 2 1 0 -0 -1 -2 -2 -3 -2 -2 -2 -2 -3 -3 -4 -4 -4 -4 -4 -4 -4 -3 -2 -2 -2 -2 -3 -4
9 9 8 8 8 9 10 9 9 8 7 6 5 3 3 1 0 -1 -2 -2 -3 -3 -3 -4 -4 -3 -3 -4 -4 -4 -4 -5 -5 -5 -5 -4 -4 -4 -3 -3 -3 -3 -4 -4
9 8 8 7 7 7 7 6 8 7 5 5 3 2 1 -0 -1 -2 -3 -3 -3 -3 -4 -4 -5 -4 -4 -4 -4 -5 -5 -5 -6 -5 -6 -6 -5 -5 -5 -4 -4 -4 -4 -4
8 8 7 7 6 5 4 3 3 3 4 3 2 0 -1 -2 -3 -4 -4 -4 -4 -5 -5 -5 -5 -6 -5 -5 -5 -6 -6 -6 -7 -7 -6 -6 -7 -6 -6 -6 -6 -6 -6 -6
7 6 6 5 4 4 3 2 2 1 0 0 -0 -1 -2 -4 -5 -5 -6 -7 -7 -7 -6 -6 -6 -6 -6 -6 -6 -6 -6 -7 -7 -7 -7 -7 -7 -7 -8 -7 -7 -7 -7 -7
4 3 3 2 1 2 1 -1 -1 -2 -1 -2 -2 -3 -4 -5 -6 -6 -8 -8 -8 -9 -8 -8 -8 -8 -7 -7 -7 -7 -8 -8 -8 -8 -8 -8 -8 -9 -9 -9 -9 -9 -8 -8
3 3 3 3 1 0 -1 -2 -2 -3 -4 -4 -5 -5 -5 -6 -7 -8 -8 -8 -9 -9 -9 -8 -8 -8 -8 -7 -7 -7 -7 -8 -8 -8 -9 -9 -9 -10 -10 -10 -11 -11 -11 -10
2 2 1 1 1 -0 -1 -2 -3 -4 -4 -5 -6 -6 -7 -7 -8 -9 -9 -9 -9 -10 -9 -9 -9 -9 -8 -8 -8 -9 -8 -8 -8 -8 -9 -9 -9 -10 -11 -11 -12 -12 -12 -11
2 1 1 -0 -1 -2 -2 -2 -3 -4 -5 -6 -7 -8 -9 -10 -10 -11 -11 -11 -11 -12 -11 -10 -10 -9 -8 -8 -8 -8 -8 -9 -9 -9 -9 -10 -10 -11 -12 -12 -13 -14 -14 -14
1 -0 -1 -2 -2 -3 -4 -4 -4 -4 -6 -7 -8 -9 -9 -10 -11 -12 -12 -12 -11 -11 -11 -11 -11 -9 -9 -9 -9 -9 -9 -9 -9 -10 -10 -11 -11 -12 -13 -13 -14 -15 -15 -15
-4 -5 -4 -4 -4 -5 -5 -6 -7 -8 -9 -10 -11 -11 -12 -12 -13 -13 -12 -12 -11 -11 -12 -12 -11 -10 -10 -10 -9 -10 -10 -10 -11 -11 -11 -12 -12 -13 -13 -14 -14 -15 -15 -15
-5 -5 -5 -6 -6 -7 -7 -9 -10 -11 -11 -11 -11 -13 -13 -13 -13 -13 -13 -13 -14 -14 -13 -12 -12 -11 -11 -11 -10 -11 -11 -11 -12 -12 -12 -12 -13 -14 -14 -14 -15 -15 -16 -16
-8 -8 -9 -9 -10 -10 -11 -11 -11 -11 -11 -11 -12 -13 -14 -14 -14 -14 -14 -15 -15 -14 -13 -13 -12 -12 -12 -12 -11 -12 -12 -12 -13 -13 -13 -13 -14 -14 -15 -15 -15 -16 -16 -17
-10 -10 -11 -11 -12 -11 -11 -10 -11 -12 -12 -11 -12 -13 -13 -14 -14 -14 -15 -16 -15 -14 -13 -13 -13 -13 -13 -13 -13 -13 -13 -13 -14 -14 -14 -14 -15 -15 -15 -16 -16 -16 -17 -17
-11 -11 -11 -11 -11 -11 -11 -11 -11 -12 -12 -12 -13 -13 -13 -14 -15 -15 -15 -15 -15 -14 -14 -14 -14 -14 -14 -14 -14 -14 -14 -15 -15 -15 -15 -15 -16 -16 -16 -17 -17 -17 -18 -18
-10 -11 -11 -11 -11 -11 -11 -11 -11 -11 -12 -12 -13 -13 -14 -14 -14 -15 -16 -15 -15 -15 -15 -15 -15 -15 -15 -15 -15 -15 -16 -16 -16 -16 -16 -16 -17 -17 -17 -18 -18 -18 -19 -19
-10 -10 -10 -10 -10 -11 -11 -12 -11 -11 -11 -12 -12 -13 -13 -14 -15 -15 -15 -15 -15 -15 -15 -16 -16 -16 -16 -16 -16 -16 -17 -17 -17 -17 -17 -18 -18 -18 -18 -19 -19 -19 -20 -20
-9 -9 -10 -10 -9 -9 -10 -11 -11 -12 -12 -12 -13 -13 -13 -14 -14 -15 -15 -15 -15 -15 -15 -16 -16 -16 -16 -17 -17 -17 -17 -17 -18 -18 -18 -18 -18 -19 -19 -19 -20 -20 -20 -21
-8 -9 -9 -9 -9 -9 -9 -10 -11 -12 -12 -13 -13 -13 -13 -14 -14 -14 -15 -15 -15 -15 -16 -16 -16 -16 -17 -17 -17 -17 -17 -18 -18 -18 -18 -19 -19 -19 -19 -20 -20 -20 -21 -21
-9 -9 -10 -10 -10 -10 -10 -11 -11 -12 -12 -12 -13 -13 -14 -14 -14 -15 -15 -15 -15 -16 -16 -16 -16 -17 -17 -17 -17 -17 -18 -18 -18 -18 -19 -19 -19 -19 -20 -20 -20 -21 -21 -21

GFSNGP_925_temp_072.txt.gz
Temp
11 11 12 12 12 13 13 12 12 13 14 15 14 14 13 14 13 11 10 9 9 8 7 7 6 6 6 6 6 7 8 9 9 10 12 12 12 12 12 13 13 13 13 13
11 12 11 12 13 12 13 14 13 13 13 15 13 13 13 12 12 11 9 8 7 6 6 5 5 4 4 4 4 5 5 5 6 7 8 9 9 10 11 12 12 12 12 12
11 10 10 11 13 12 13 14 13 13 15 13 13 13 12 11 10 9 8 7 5 4 4 3 3 3 2 2 3 3 3 3 3 3 4 5 6 7 7 8 9 9 10 11
9 10 9 13 13 14 13 14 14 14 14 13 11 12 12 11 9 7 5 4 3 3 2 1 2 1 1 1 1 1 0 0 0 1 1 2 3 3 3 4 5 5 6 6
8 8 10 11 13 12 13 13 14 14 14 10 8 8 6 7 6 5 4 2 1 0 0 0 0 0 0 0 -0 -1 -1 -2 -2 -2 -1 -0 -0 0 1 1 2 2 2 2
7 8 8 11 12 11 12 11 11 11 12 9 12 10 7 5 4 3 2 1 0 -1 -1 -1 -1 -0 -0 -1 -2 -2 -3 -4 -4 -2 -2 -2 -2 -1 -0 0 0 -1 -2 -2
8 7 9 10 9 10 11 10 8 9 11 10 10 8 4 2 1 0 1 0 -1 -1 -2 -2 -2 -2 -2 -2 -3 -3 -4 -4 -5 -4 -3 -3 -3 -2 -2 -2 -2 -3 -3 -4
8 8 8 7 10 11 9 8 7 7 7 5 4 4 2 1 -0 -1 -1 -2 -2 -2 -3 -3 -3 -2 -4 -4 -4 -4 -5 -5 -5 -5 -4 -5 -4 -4 -3 -3 -3 -4 -4 -4
9 9 7 7 6 7 9 8 6 5 4 4 3 2 0 -1 -2 -2 -2 -2 -3 -3 -4 -4 -4 -4 -4 -5 -5 -5 -5 -5 -6 -6 -6 -6 -5 -5 -4 -4 -4 -4 -4 -5
8 8 7 7 6 4 5 5 5 3 3 2 1 -0 -1 -2 -3 -3 -3 -3 -3 -4 -4 -5 -5 -5 -5 -5 -5 -5 -6 -6 -6 -6 -6 -6 -6 -6 -6 -6 -6 -6 -6 -6
8 7 7 6 4 3 3 2 1 1 1 0 -1 -2 -2 -3 -3 -4 -5 -5 -5 -5 -5 -6 -6 -6 -6 -6 -6 -6 -6 -7 -7 -7 -7 -7 -7 -7 -7 -7 -7 -7 -7 -7
6 5 5 3 2 2 1 0 0 -0 -1 -1 -2 -3 -4 -5 -5 -6 -7 -7 -7 -7 -7 -7 -7 -8 -7 -6 -6 -6 -7 -7 -8 -8 -8 -8 -8 -8 -8 -8 -8 -7 -7 -7
4 2 1 0 -0 -1 -1 -2 -2 -2 -2 -3 -3 -4 -5 -5 -6 -7 -8 -8 -9 -9 -9 -9 -8 -8 -7 -7 -7 -7 -7 -8 -8 -8 -8 -9 -9 -10 -11 -11 -10 -10 -9 -9
1 3 2 0 -1 -2 -2 -3 -4 -4 -4 -5 -5 -5 -6 -7 -8 -8 -8 -9 -9 -9 -9 -9 -9 -9 -8 -7 -7 -7 -7 -8 -8 -8 -9 -9 -10 -11 -11 -12 -12 -13 -12 -11
1 1 1 -0 -1 -1 -2 -3 -4 -5 -5 -6 -6 -7 -7 -8 -9 -10 -10 -10 -10 -10 -10 -9 -9 -9 -8 -8 -7 -8 -8 -9 -9 -9 -10 -10 -11 -11 -12 -13 -13 -14 -13 -12
1 0 -0 -1 -2 -2 -3 -4 -5 -5 -6 -7 -8 -9 -10 -10 -11 -12 -12 -11 -12 -12 -12 -11 -10 -10 -9 -8 -8 -8 -9 -9 -9 -10 -10 -11 -11 -12 -13 -14 -14 -15 -15 -15
0 -0 -1 -2 -3 -4 -5 -4 -5 -6 -7 -8 -9 -10 -10 -11 -12 -13 -13 -12 -12 -12 -12 -12 -11 -10 -10 -9 -9 -9 -9 -10 -10 -11 -11 -12 -12 -13 -14 -14 -15 -16 -16 -16
-5 -5 -5 -4 -4 -5 -6 -7 -8 -9 -10 -11 -12 -12 -13 -13 -14 -14 -13 -12 -12 -12 -12 -12 -12 -11 -10 -10 -10 -10 -10 -11 -11 -12 -12 -13 -13 -14 -14 -15 -15 -16 -16 -16
-5 -5 -6 -6 -7 -7 -8 -9 -11 -11 -12 -12 -12 -14 -14 -14 -14 -14 -13 -13 -14 -14 -14 -13 -12 -12 -11 -12 -11 -11 -11 -11 -12 -13 -13 -13 -14 -14 -15 -15 -16 -16 -16 -17
-8 -9 -10 -10 -10 -10 -12 -12 -12 -12 -12 -12 -13 -14 -15 -15 -14 -14 -14 -15 -15 -15 -14 -13 -13 -13 -13 -13 -12 -12 -12 -12 -13 -14 -14 -14 -15 -15 -15 -16 -16 -16 -17 -17
-11 -11 -11 -12 -12 -12 -11 -11 -11 -13 -13 -12 -12 -14 -14 -14 -14 -14 -15 -16 -15 -15 -14 -14 -14 -14 -14 -14 -13 -13 -14 -14 -14 -14 -15 -15 -15 -16 -16 -17 -17 -17 -18 -18
-11 -11 -11 -11 -12 -12 -12 -11 -11 -12 -12 -13 -13 -14 -14 -15 -15 -15 -16 -16 -15 -15 -15 -15 -15 -15 -15 -15 -15 -15 -15 -15 -15 -16 -16 -16 -16 -17 -17 -17 -18 -18 -18 -19
-11 -11 -11 -11 -11 -12 -11 -11 -11 -11 -12 -12 -13 -13 -14 -14 -15 -15 -16 -15 -15 -15 -15 -16 -16 -16 -16 -16 -16 -16 -16 -16 -16 -17 -17 -17 -17 -18 -18 -18 -19 -19 -19 -20
-10 -10 -10 -11 -11 -11 -11 -12 -11 -12 -12 -12 -13 -13 -13 -14 -14 -15 -15 -15 -15 -16 -16 -16 -16 -16 -16 -17 -17 -17 -17 -17 -17 -18 -18 -18 -18 -18 -19 -19 -19 -20 -20 -20
-9 -10 -10 -10 -9 -10 -11 -11 -12 -12 -12 -12 -13 -13 -14 -14 -14 -15 -15 -15 -15 -16 -16 -16 -16 -17 -17 -17 -17 -17 -18 -18 -18 -18 -19 -19 -19 -19 -19 -20 -20 -20 -20 -21
-9 -9 -9 -9 -9 -9 -10 -11 -11 -12 -12 -13 -13 -13 -14 -14 -14 -14 -15 -15 -15 -16 -16 -16 -16 -17 -17 -17 -17 -17 -18 -18 -18 -18 -19 -19 -19 -19 -19 -20 -20 -20 -21 -21
-9 -10 -10 -10 -10 -10 -11 -11 -11 -12 -12 -12 -13 -13 -14 -14 -14 -15 -15 -15 -15 -16 -16 -16 -16 -17 -17 -17 -17 -18 -18 -18 -18 -18 -19 -19 -19 -19 -20 -20 -20 -20 -21 -21

GFSNGP_925_temp_075.txt.gz
Temp
12 13 13 13 13 14 14 13 12 15 14 14 14 14 12 12 11 9 8 7 6 5 6 5 5 5 6 6 6 7 7 7 7 9 10 11 11 11 12 12 12 11 11 11
12 12 12 12 14 14 13 14 14 14 14 16 16 14 12 11 11 9 7 6 5 5 5 4 4 4 5 4 3 5 4 3 4 5 6 6 7 9 10 10 10 11 11 11
12 11 12 13 13 13 14 15 15 14 15 15 14 14 12 11 10 8 7 6 5 4 3 3 3 3 3 3 2 2 1 2 2 3 3 3 4 5 5 6 7 6 6 7
11 11 11 14 14 14 14 15 15 15 14 12 10 8 10 9 8 6 4 4 3 2 2 2 2 2 1 1 1 1 1 0 1 1 2 2 2 2 3 3 3 3 2 3
10 11 12 13 13 12 12 13 12 12 13 10 9 8 6 5 4 3 2 1 1 0 0 0 1 1 0 -0 -0 -1 -1 -1 -0 -0 -0 0 0 1 1 2 1 -1 -1 -1
8 10 10 13 11 12 12 13 10 10 11 11 11 11 6 3 1 1 0 0 -0 -1 -1 -1 -1 -1 -1 -1 -2 -2 -3 -3 -2 -2 -2 -1 -1 -1 -1 -1 -2 -2 -3 -3
10 10 11 9 9 10 12 11 8 8 9 11 10 6 2 1 -0 -1 -1 -1 -1 -2 -2 -2 -2 -2 -2 -2 -3 -3 -4 -4 -4 -3 -3 -2 -2 -2 -2 -2 -3 -3 -3 -4
9 9 9 8 10 10 8 8 6 6 5 4 2 1 -0 -1 -1 -2 -2 -1 -2 -2 -3 -3 -3 -3 -3 -3 -4 -4 -4 -4 -4 -5 -4 -4 -3 -3 -3 -3 -3 -3 -4 -4
10 10 7 7 6 5 7 7 5 4 4 2 1 -0 -1 -2 -2 -3 -3 -2 -3 -3 -3 -4 -4 -4 -4 -4 -5 -4 -4 -5 -5 -5 -5 -5 -5 -5 -5 -5 -4 -4 -5 -5
7 7 6 5 4 3 3 3 3 3 2 0 -1 -2 -2 -3 -3 -4 -4 -3 -3 -4 -4 -5 -5 -5 -5 -5 -5 -5 -5 -5 -5 -6 -6 -6 -6 -6 -6 -5 -5 -5 -5 -5
7 6 5 3 3 2 1 1 1 0 -0 -1 -1 -2 -3 -3 -4 -5 -5 -5 -5 -5 -5 -6 -6 -6 -6 -5 -5 -5 -6 -6 -6 -6 -6 -7 -7 -7 -7 -7 -6 -6 -6 -6
6 4 3 2 1 1 0 -0 -0 -0 -1 -2 -3 -4 -4 -5 -6 -6 -6 -6 -7 -7 -7 -7 -7 -8 -8 -7 -6 -6 -6 -6 -7 -7 -7 -7 -7 -8 -9 -8 -8 -8 -8 -7
3 1 0 -0 -1 -1 -1 -2 -2 -2 -3 -3 -4 -4 -5 -6 -6 -7 -7 -8 -8 -9 -9 -9 -9 -9 -8 -6 -6 -7 -7 -7 -7 -8 -8 -8 -8 -8 -9 -11 -11 -10 -10 -9
1 1 0 -0 -1 -2 -3 -3 -3 -4 -4 -4 -5 -5 -6 -6 -7 -7 -8 -9 -9 -9 -10 -10 -10 -9 -8 -7 -7 -7 -8 -8 -9 -9 -10 -10 -10 -11 -11 -11 -11 -12 -13 -13
-0 -0 -0 -1 -1 -2 -3 -3 -3 -4 -5 -5 -6 -6 -7 -7 -8 -9 -9 -9 -10 -10 -11 -10 -10 -10 -9 -8 -8 -8 -9 -9 -10 -10 -10 -11 -11 -11 -12 -12 -13 -13 -13 -13
0 -0 -1 -2 -2 -3 -3 -3 -4 -5 -6 -7 -7 -8 -9 -10 -11 -11 -12 -11 -11 -12 -12 -11 -11 -10 -9 -9 -9 -9 -10 -9 -10 -11 -11 -11 -12 -12 -12 -13 -13 -14 -14 -15
0 -0 -1 -2 -3 -3 -4 -4 -5 -6 -7 -8 -9 -9 -10 -11 -11 -12 -13 -12 -12 -12 -12 -12 -12 -11 -10 -10 -9 -11 -11 -11 -11 -11 -12 -12 -12 -13 -13 -14 -14 -15 -16 -16
-4 -4 -4 -3 -4 -5 -6 -6 -7 -8 -9 -10 -12 -12 -13 -13 -13 -14 -14 -13 -13 -13 -13 -13 -12 -11 -11 -11 -10 -11 -11 -11 -12 -12 -13 -13 -13 -14 -14 -14 -15 -15 -16 -17
-5 -5 -6 -6 -7 -7 -8 -9 -10 -11 -12 -12 -13 -14 -14 -14 -14 -14 -14 -13 -14 -14 -14 -13 -13 -12 -12 -12 -11 -11 -12 -13 -13 -13 -14 -14 -14 -15 -15 -15 -16 -16 -17 -17
-8 -9 -9 -10 -10 -10 -11 -12 -12 -13 -13 -13 -14 -14 -15 -15 -15 -14 -14 -15 -16 -15 -14 -14 -13 -13 -13 -13 -12 -12 -13 -14 -14 -15 -15 -15 -16 -16 -16 -16 -17 -17 -18 -18
-10 -10 -11 -11 -12 -12 -12 -12 -12 -13 -13 -13 -13 -14 -15 -15 -15 -15 -14 -14 -16 -15 -14 -14 -14 -14 -14 -14 -14 -14 -14 -14 -15 -16 -16 -16 -17 -17 -17 -18 -18 -18 -19 -19
-11 -11 -12 -12 -12 -12 -12 -12 -12 -13 -13 -13 -14 -14 -15 -15 -15 -15 -15 -15 -16 -15 -15 -15 -15 -15 -15 -15 -15 -15 -15 -15 -16 -17 -17 -17 -17 -18 -18 -18 -19 -19 -19 -19
-11 -11 -11 -11 -11 -12 -12 -12 -12 -12 -13 -13 -14 -14 -14 -14 -15 -14 -14 -16 -16 -16 -16 -16 -16 -16 -16 -16 -16 -16 -17 -17 -17 -17 -17 -17 -18 -18 -19 -19 -19 -19 -20 -21
-10 -10 -11 -11 -11 -10 -11 -12 -12 -12 -12 -13 -13 -14 -14 -15 -15 -15 -15 -16 -16 -16 -16 -16 -16 -17 -17 -17 -17 -17 -17 -18 -18 -18 -18 -18 -18 -19 -19 -19 -20 -20 -20 -20
-10 -10 -10 -9 -9 -9 -10 -11 -12 -12 -12 -13 -13 -14 -14 -14 -14 -15 -15 -15 -16 -16 -16 -16 -16 -17 -17 -17 -17 -17 -18 -18 -18 -18 -19 -19 -19 -19 -19 -20 -20 -20 -20 -21
-9 -9 -9 -10 -10 -10 -10 -11 -11 -12 -12 -13 -13 -13 -14 -14 -14 -15 -15 -15 -15 -16 -16 -16 -16 -17 -17 -17 -17 -17 -18 -18 -18 -18 -19 -19 -19 -19 -19 -20 -20 -20 -20 -21
-10 -10 -10 -11 -11 -11 -11 -11 -11 -11 -12 -13 -13 -13 -14 -14 -14 -15 -15 -15 -15 -16 -16 -16 -16 -16 -17 -17 -17 -18 -18 -18 -19 -19 -19 -19 -19 -19 -20 -20 -20 -20 -20 -21